EW5478 Weather Reports


Display with metric or nautical units.
time (UTC)temp
F
wind
direction
speed
MPH
gust
MPH
rain 1hr
in
rain 24hr
in
rain mn
in
humidity
%
barometer
mb
20200329055931 86 119 3.0 10.0 0.00 0.01 0.01 58 1011.2
20200329055827 86 53 3.0 10.0 0.00 0.01 0.01 59 1011.2
20200329055719 86 75 3.0 10.0 0.00 0.01 0.01 58 1011.1
20200329055616 86 144 3.0 10.0 0.00 0.01 0.01 58 1011.1
20200329055513 86 101 3.0 10.0 0.00 0.01 0.01 58 1011.1
20200329055408 86 58 3.0 10.0 0.00 0.01 0.01 58 1011.1
20200329055303 86 115 3.0 10.0 0.00 0.01 0.01 58 1011.1
20200329055200 85 57 3.0 10.0 0.00 0.01 0.01 59 1011.1
20200329055056 85 50 3.0 10.0 0.00 0.01 0.01 59 1011.1
20200329054951 85 57 3.0 10.0 0.00 0.01 0.01 59 1011.1
20200329054843 85 72 3.0 10.0 0.00 0.01 0.01 59 1011.1
20200329054740 85 15 3.0 10.0 0.00 0.01 0.01 59 1011.1
20200329054637 85 0 3.0 10.0 0.00 0.01 0.01 59 1011.0
20200329054530 85 15 3.0 12.0 0.00 0.01 0.01 58 1011.0
20200329054426 85 5 3.0 12.0 0.00 0.01 0.01 58 1011.0
20200329054323 86 32 3.0 12.0 0.00 0.01 0.01 59 1011.0
20200329054218 86 182 3.0 12.0 0.00 0.01 0.01 58 1011.0
20200329054115 86 208 3.0 12.0 0.00 0.01 0.01 59 1011.0
20200329054013 86 92 4.0 12.0 0.00 0.01 0.01 58 1011.0
20200329053909 86 153 3.0 12.0 0.00 0.01 0.01 57 1011.0
20200329053803 86 109 3.0 12.0 0.00 0.01 0.01 57 1011.0
20200329053656 86 65 3.0 12.0 0.00 0.01 0.01 57 1011.0
20200329053552 86 317 3.0 12.0 0.00 0.01 0.01 57 1011.0
20200329053446 86 42 3.0 12.0 0.00 0.01 0.01 57 1011.0
20200329053338 87 149 3.0 12.0 0.00 0.01 0.01 57 1011.1
20200329053231 87 90 3.0 12.0 0.00 0.01 0.01 57 1011.0
20200329053127 87 167 3.0 12.0 0.00 0.01 0.01 57 1011.0
20200329053021 87 132 3.0 12.0 0.00 0.01 0.01 57 1011.0
20200329052915 87 251 3.0 12.0 0.00 0.01 0.01 56 1011.0
20200329052808 87 308 3.0 12.0 0.00 0.01 0.01 55 1011.0
20200329052701 87 17 2.0 12.0 0.00 0.01 0.01 56 1011.0
20200329052556 87 334 2.0 12.0 0.00 0.01 0.01 56 1011.1
20200329052448 87 330 2.0 10.0 0.00 0.01 0.01 56 1011.0
20200329052343 87 340 2.0 10.0 0.00 0.01 0.01 56 1011.1
20200329052236 87 20 2.0 10.0 0.00 0.01 0.01 56 1011.1
20200329052132 87 44 2.0 10.0 0.00 0.01 0.01 55 1011.0
20200329052025 88 61 2.0 10.0 0.00 0.01 0.01 55 1011.1
20200329051919 88 138 2.0 10.0 0.00 0.01 0.01 56 1011.1
20200329051815 88 95 2.0 10.0 0.00 0.01 0.01 56 1011.1
20200329051710 88 65 2.0 10.0 0.00 0.01 0.01 56 1011.2
20200329051603 88 50 2.0 10.0 0.00 0.01 0.01 56 1011.1
20200329051500 88 327 1.0 10.0 0.00 0.01 0.01 55 1011.2
20200329051358 88 130 1.0 6.0 0.00 0.01 0.01 55 1011.2
20200329051249 88 59 1.0 6.0 0.00 0.01 0.01 56 1011.2
20200329051145 87 53 1.0 5.0 0.00 0.01 0.01 55 1011.2
20200329051040 87 21 1.0 5.0 0.00 0.01 0.01 55 1011.2
20200329050933 87 182 1.0 4.0 0.00 0.01 0.01 55 1011.2
20200329050826 87 42 1.0 2.0 0.00 0.01 0.01 56 1011.2
20200329050719 87 342 1.0 8.0 0.00 0.01 0.01 57 1011.2
20200329050614 87 28 1.0 8.0 0.00 0.01 0.01 57 1011.2
20200329050511 87 307 1.0 7.0 0.00 0.01 0.01 58 1011.2
20200329050403 87 38 2.0 11.0 0.00 0.01 0.01 57 1011.3
20200329050256 87 52 2.0 11.0 0.00 0.01 0.01 57 1011.2
20200329050151 87 60 2.0 11.0 0.00 0.01 0.01 56 1011.2
20200329050047 87 58 2.0 11.0 0.00 0.01 0.01 58 1011.3
20200329045943 87 122 2.0 11.0 0.00 0.01 0.01 59 1011.2
20200329045836 86 267 3.0 11.0 0.00 0.01 0.01 59 1011.2
20200329045729 86 253 3.0 11.0 0.00 0.01 0.01 58 1011.2
20200329045626 86 49 3.0 11.0 0.00 0.01 0.01 59 1011.3
20200329045521 86 65 3.0 11.0 0.00 0.01 0.01 58 1011.2
20200329045416 86 106 3.0 11.0 0.00 0.01 0.01 58 1011.3
20200329045314 86 112 3.0 11.0 0.00 0.01 0.01 58 1011.3
20200329045209 86 62 3.0 11.0 0.00 0.01 0.01 57 1011.3
20200329045103 87 16 3.0 11.0 0.00 0.01 0.01 58 1011.3
20200329044958 87 121 3.0 11.0 0.00 0.01 0.01 58 1011.3
20200329044855 87 161 3.0 11.0 0.00 0.01 0.01 57 1011.3
20200329044748 87 100 2.0 11.0 0.00 0.01 0.01 59 1011.3
20200329044640 87 80 3.0 11.0 0.00 0.01 0.01 58 1011.3
20200329044533 87 88 2.0 11.0 0.00 0.01 0.01 58 1011.3
20200329044424 86 68 2.0 9.0 0.00 0.01 0.01 58 1011.3
20200329044321 86 65 2.0 9.0 0.00 0.01 0.01 57 1011.3
20200329044217 86 30 2.0 9.0 0.00 0.01 0.01 58 1011.4
20200329044109 86 336 2.0 9.0 0.00 0.01 0.01 58 1011.3
20200329044006 86 17 2.0 9.0 0.00 0.01 0.01 58 1011.3
20200329043858 86 22 2.0 9.0 0.00 0.01 0.01 57 1011.4
20200329043750 86 83 2.0 9.0 0.00 0.01 0.01 57 1011.4
20200329043646 86 49 2.0 9.0 0.00 0.01 0.01 58 1011.4
20200329043542 87 317 2.0 9.0 0.00 0.01 0.01 57 1011.4
20200329043434 87 327 2.0 9.0 0.00 0.01 0.01 56 1011.4
20200329043327 87 66 3.0 9.0 0.00 0.01 0.01 56 1011.5
20200329043220 87 83 2.0 7.0 0.00 0.01 0.01 56 1011.4
20200329043115 87 350 2.0 7.0 0.00 0.01 0.01 55 1011.4
20200329043012 88 141 2.0 7.0 0.00 0.01 0.01 54 1011.5
20200329042910 88 113 2.0 8.0 0.00 0.01 0.01 55 1011.5
20200329042804 88 98 2.0 8.0 0.00 0.01 0.01 54 1011.5
20200329042659 88 148 2.0 8.0 0.00 0.01 0.01 55 1011.5
20200329042555 88 61 2.0 8.0 0.00 0.01 0.01 55 1011.5
20200329042449 88 103 2.0 8.0 0.00 0.01 0.01 57 1011.5
20200329042341 88 96 3.0 8.0 0.00 0.01 0.01 56 1011.5
20200329042233 88 163 3.0 8.0 0.00 0.01 0.01 55 1011.5
20200329042131 88 139 3.0 8.0 0.00 0.01 0.01 54 1011.5
20200329042024 88 124 3.0 8.0 0.00 0.01 0.01 54 1011.5
20200329041918 88 82 3.0 10.0 0.00 0.01 0.01 54 1011.5
20200329041814 88 78 3.0 10.0 0.00 0.01 0.01 54 1011.6
20200329041706 88 190 3.0 10.0 0.00 0.01 0.01 54 1011.4
20200329041559 88 221 3.0 10.0 0.00 0.01 0.01 54 1011.5
20200329041452 87 140 3.0 10.0 0.00 0.01 0.01 54 1011.5
20200329041349 87 88 3.0 10.0 0.00 0.01 0.01 55 1011.5
20200329041244 87 143 3.0 10.0 0.00 0.01 0.01 55 1011.5
20200329041142 87 96 3.0 10.0 0.00 0.01 0.01 55 1011.5
20200329041033 87 165 3.0 10.0 0.00 0.01 0.01 55 1011.4
20200329040925 87 86 3.0 10.0 0.00 0.01 0.01 55 1011.5
20200329040821 87 253 3.0 11.0 0.00 0.01 0.01 54 1011.5
20200329040716 87 49 3.0 11.0 0.00 0.01 0.01 54 1011.6
20200329040611 88 116 3.0 11.0 0.00 0.01 0.01 54 1011.6
20200329040505 88 340 3.0 11.0 0.00 0.01 0.01 56 1011.5
20200329040358 88 45 3.0 11.0 0.00 0.01 0.01 55 1011.5
20200329040254 88 118 2.0 11.0 0.00 0.01 0.01 54 1011.5
20200329040147 88 177 2.0 11.0 0.00 0.01 0.01 55 1011.6
20200329040039 88 148 2.0 11.0 0.00 0.01 0.01 55 1011.5
20200329035931 88 130 3.0 11.0 0.00 0.01 0.01 55 1011.5
20200329035824 88 10 3.0 11.0 0.00 0.01 0.01 54 1011.5
20200329035719 88 150 3.0 11.0 0.00 0.01 0.01 55 1011.6
20200329035613 87 126 2.0 11.0 0.00 0.01 0.01 54 1011.6
20200329035509 87 128 2.0 11.0 0.00 0.01 0.01 55 1011.5
20200329035404 87 128 3.0 11.0 0.00 0.01 0.01 55 1011.6
20200329035258 87 133 3.0 11.0 0.00 0.01 0.01 57 1011.5
20200329035152 87 77 3.0 11.0 0.00 0.01 0.01 55 1011.6
20200329035047 87 71 4.0 11.0 0.00 0.01 0.01 55 1011.6
20200329034945 87 2 3.0 11.0 0.00 0.01 0.01 55 1011.6
20200329034838 87 146 3.0 10.0 0.00 0.01 0.01 55 1011.6
20200329034735 87 126 3.0 10.0 0.00 0.01 0.01 55 1011.5
20200329034630 87 123 3.0 10.0 0.00 0.01 0.01 54 1011.5
20200329034523 87 288 3.0 10.0 0.00 0.01 0.01 54 1011.6
20200329034416 87 32 3.0 10.0 0.00 0.01 0.01 54 1011.5
20200329034309 88 13 3.0 9.0 0.00 0.01 0.01 55 1011.6
20200329034205 87 122 2.0 9.0 0.00 0.01 0.01 54 1011.5
20200329034059 87 129 2.0 9.0 0.00 0.01 0.01 54 1011.4
20200329033950 87 134 2.0 9.0 0.00 0.01 0.01 53 1011.5
20200329033848 88 77 2.0 9.0 0.00 0.01 0.01 53 1011.6
20200329033743 88 55 2.0 9.0 0.00 0.01 0.01 52 1011.5
20200329033639 88 105 2.0 9.0 0.00 0.01 0.01 51 1011.6
20200329033533 88 135 2.0 9.0 0.00 0.01 0.01 53 1011.6
20200329033430 88 123 2.0 9.0 0.00 0.01 0.01 58 1011.6
20200329033325 87 256 2.0 9.0 0.00 0.01 0.01 60 1011.6
20200329033221 86 238 2.0 9.0 0.00 0.01 0.01 57 1011.6
20200329033117 86 115 3.0 9.0 0.00 0.01 0.01 56 1011.6
20200329033010 86 116 3.0 9.0 0.00 0.01 0.01 57 1011.6
20200329032906 86 350 3.0 9.0 0.00 0.01 0.01 57 1011.6
20200329032759 86 288 4.0 9.0 0.00 0.01 0.01 57 1011.7
20200329032652 87 117 4.0 9.0 0.00 0.01 0.01 56 1011.7
20200329032549 87 109 4.0 10.0 0.00 0.01 0.01 56 1011.8
20200329032444 87 45 4.0 10.0 0.00 0.01 0.01 56 1011.7
20200329032343 87 119 3.0 10.0 0.00 0.01 0.01 55 1011.7
20200329032236 87 59 3.0 10.0 0.00 0.01 0.01 55 1011.7
20200329032134 87 80 3.0 10.0 0.00 0.01 0.01 55 1011.7
20200329032028 87 120 3.0 10.0 0.00 0.01 0.01 55 1011.7
20200329031922 88 136 3.0 10.0 0.00 0.01 0.01 55 1011.7
20200329031820 88 44 2.0 10.0 0.00 0.01 0.01 54 1011.7
20200329031710 88 347 2.0 10.0 0.00 0.01 0.01 54 1011.7
20200329031604 88 71 2.0 11.0 0.00 0.01 0.01 55 1011.7
20200329031500 88 331 2.0 11.0 0.00 0.01 0.01 53 1011.8
20200329031357 87 55 2.0 11.0 0.00 0.01 0.01 56 1011.8
20200329031254 87 156 2.0 11.0 0.00 0.01 0.01 54 1011.7
20200329031148 87 26 2.0 11.0 0.00 0.01 0.01 55 1011.7
20200329031040 87 98 3.0 11.0 0.00 0.01 0.01 55 1011.8
20200329030934 87 103 3.0 11.0 0.00 0.01 0.01 55 1011.8
20200329030828 87 79 4.0 11.0 0.00 0.01 0.01 54 1011.8
20200329030723 87 357 4.0 11.0 0.00 0.01 0.01 56 1011.9
20200329030621 87 86 4.0 11.0 0.00 0.01 0.01 56 1011.9
20200329030516 87 121 3.0 11.0 0.00 0.01 0.01 56 1011.9
20200329030410 87 177 4.0 11.0 0.00 0.01 0.01 55 1011.9
20200329030303 87 92 3.0 11.0 0.00 0.01 0.01 56 1011.9
20200329030154 87 44 3.0 11.0 0.00 0.01 0.01 56 1011.9
20200329030049 87 65 3.0 11.0 0.00 0.01 0.01 56 1011.9
20200329025945 87 59 3.0 11.0 0.00 0.01 0.01 56 1011.9
20200329025838 87 135 3.0 11.0 0.00 0.01 0.01 57 1011.9
20200329025732 87 165 3.0 11.0 0.00 0.01 0.01 57 1011.9
20200329025627 87 65 3.0 11.0 0.00 0.01 0.01 57 1011.9
20200329025525 87 134 4.0 11.0 0.00 0.01 0.01 56 1011.9
20200329025418 87 101 3.0 11.0 0.00 0.01 0.01 56 1012.0
20200329025315 87 88 4.0 11.0 0.00 0.01 0.01 56 1012.0
20200329025208 87 172 4.0 11.0 0.00 0.01 0.01 56 1012.0
20200329025105 87 144 4.0 11.0 0.00 0.01 0.01 56 1012.0
20200329024958 87 38 4.0 11.0 0.00 0.01 0.01 56 1012.0
20200329024850 87 70 3.0 11.0 0.00 0.01 0.01 56 1012.0
20200329024745 87 113 3.0 11.0 0.00 0.01 0.01 55 1012.1
20200329024638 87 144 3.0 11.0 0.00 0.01 0.01 55 1012.1
20200329024534 87 142 3.0 10.0 0.00 0.01 0.01 56 1012.0
20200329024427 87 76 3.0 10.0 0.00 0.01 0.01 56 1012.0
20200329024322 87 109 3.0 10.0 0.00 0.01 0.01 55 1012.0
20200329024220 87 149 3.0 10.0 0.00 0.01 0.01 55 1012.0
20200329024115 87 28 3.0 10.0 0.00 0.01 0.01 55 1012.1
20200329024009 87 83 4.0 10.0 0.00 0.01 0.01 56 1012.0
20200329023904 87 313 4.0 10.0 0.00 0.01 0.01 57 1012.1
20200329023758 87 96 4.0 10.0 0.00 0.01 0.01 56 1012.1
20200329023651 87 70 4.0 10.0 0.00 0.01 0.01 56 1012.1
20200329023547 87 76 4.0 10.0 0.00 0.01 0.01 55 1012.1
20200329023336 87 40 4.0 10.0 0.00 0.01 0.01 57 1012.1
20200329023231 87 76 4.0 10.0 0.00 0.01 0.01 56 1012.1
20200329023126 87 13 3.0 10.0 0.00 0.01 0.01 56 1012.2
20200329023023 87 99 3.0 10.0 0.00 0.01 0.01 56 1012.1
20200329022917 87 25 3.0 10.0 0.00 0.01 0.01 55 1012.1
20200329022813 87 129 3.0 10.0 0.00 0.01 0.01 54 1012.2
20200329022711 87 105 3.0 10.0 0.00 0.01 0.01 54 1012.2
20200329022605 87 102 2.0 10.0 0.00 0.01 0.01 54 1012.2
20200329022500 87 76 2.0 10.0 0.00 0.01 0.01 55 1012.3
20200329022353 87 6 2.0 10.0 0.00 0.01 0.01 55 1012.3
20200329022249 87 162 1.0 10.0 0.00 0.01 0.01 55 1012.3
20200329022143 87 306 1.0 10.0 0.00 0.01 0.01 56 1012.3
20200329022035 87 177 1.0 10.0 0.00 0.01 0.01 54 1012.3
20200329021930 87 342 1.0 10.0 0.00 0.01 0.01 55 1012.3
20200329021825 87 325 1.0 10.0 0.00 0.01 0.01 56 1012.3
20200329021721 87 358 0.0 8.0 0.00 0.01 0.01 57 1012.2
20200329021617 87 320 0.0 2.0 0.00 0.01 0.01 56 1012.3
20200329021510 87 44 0.0 2.0 0.00 0.01 0.01 56 1012.4
20200329021406 87 309 0.0 0.0 0.00 0.01 0.01 55 1012.3
20200329021300 87 57 1.0 3.0 0.00 0.01 0.01 55 1012.3
20200329021151 87 57 1.0 3.0 0.00 0.01 0.01 55 1012.4
20200329021048 87 296 1.0 8.0 0.00 0.01 0.01 55 1012.4
20200329020944 87 296 1.0 8.0 0.00 0.01 0.01 55 1012.3
20200329020838 87 16 1.0 8.0 0.00 0.01 0.01 56 1012.3
20200329020730 87 210 2.0 8.0 0.00 0.01 0.01 54 1012.3
20200329020627 87 117 2.0 8.0 0.00 0.01 0.01 54 1012.4
20200329020523 87 86 2.0 8.0 0.00 0.01 0.01 54 1012.4
20200329020419 87 225 2.0 8.0 0.00 0.01 0.01 54 1012.4
20200329020312 87 132 2.0 8.0 0.00 0.01 0.01 54 1012.5
20200329020205 87 126 2.0 11.0 0.00 0.01 0.01 54 1012.4
20200329020103 87 4 2.0 11.0 0.00 0.01 0.01 54 1012.4
20200329015955 87 97 2.0 11.0 0.00 0.01 0.01 55 1012.4
20200329015852 87 6 2.0 11.0 0.00 0.01 0.01 54 1012.4
20200329015749 87 153 2.0 11.0 0.00 0.01 0.01 55 1012.4
20200329015644 87 86 2.0 11.0 0.00 0.01 0.01 54 1012.4
20200329015535 87 177 2.0 11.0 0.00 0.01 0.01 54 1012.4
20200329015427 87 243 2.0 11.0 0.00 0.01 0.01 55 1012.4
20200329015324 87 200 2.0 11.0 0.00 0.01 0.01 53 1012.5
20200329015219 87 126 2.0 11.0 0.00 0.01 0.01 53 1012.5
20200329015117 87 163 3.0 11.0 0.00 0.01 0.01 53 1012.5
20200329015012 87 159 3.0 11.0 0.00 0.01 0.01 53 1012.5
20200329014908 87 190 3.0 11.0 0.00 0.01 0.01 54 1012.6
20200329014802 87 140 3.0 11.0 0.00 0.01 0.01 54 1012.6
20200329014655 87 128 3.0 11.0 0.00 0.01 0.01 53 1012.6
20200329014551 87 138 3.0 11.0 0.00 0.01 0.01 53 1012.6
20200329014448 87 105 3.0 11.0 0.00 0.01 0.01 53 1012.6
20200329014340 87 90 4.0 11.0 0.00 0.01 0.01 53 1012.6
20200329014233 87 172 4.0 11.0 0.00 0.01 0.01 55 1012.6
20200329014128 87 203 3.0 9.0 0.00 0.01 0.01 55 1012.6
20200329014023 87 177 3.0 9.0 0.00 0.01 0.01 55 1012.6
20200329013919 86 72 3.0 13.0 0.00 0.01 0.01 55 1012.6
20200329013813 87 30 4.0 13.0 0.00 0.01 0.01 54 1012.6
20200329013706 87 46 4.0 13.0 0.00 0.01 0.01 54 1012.7
20200329013602 87 98 4.0 13.0 0.00 0.01 0.01 54 1012.6
20200329013457 87 51 4.0 13.0 0.00 0.01 0.01 55 1012.6
20200329013349 87 83 4.0 13.0 0.00 0.01 0.01 54 1012.7
20200329013247 87 92 4.0 13.0 0.00 0.01 0.01 53 1012.7
20200329013140 87 111 4.0 13.0 0.00 0.01 0.01 53 1012.7
20200329013035 87 131 4.0 13.0 0.00 0.01 0.01 55 1012.7
20200329012927 87 145 4.0 15.0 0.00 0.01 0.01 55 1012.7
20200329012823 87 304 4.0 15.0 0.00 0.01 0.01 55 1012.7
20200329012721 87 33 4.0 15.0 0.00 0.01 0.01 55 1012.7
20200329012618 87 105 4.0 15.0 0.00 0.01 0.01 54 1012.7
20200329012515 86 98 4.0 15.0 0.00 0.01 0.01 54 1012.8
20200329012409 86 36 5.0 15.0 0.00 0.01 0.01 54 1012.7
20200329012300 87 163 5.0 15.0 0.00 0.01 0.01 54 1012.8
20200329012154 87 61 5.0 15.0 0.00 0.01 0.01 54 1012.7
20200329012050 86 144 5.0 15.0 0.00 0.01 0.01 54 1012.8
20200329011945 86 172 5.0 15.0 0.00 0.01 0.01 55 1012.8
20200329011840 86 75 4.0 15.0 0.00 0.01 0.01 55 1012.9
20200329011737 86 94 4.0 15.0 0.00 0.01 0.01 56 1012.8
20200329011635 86 214 4.0 15.0 0.00 0.01 0.01 55 1012.9
20200329011532 86 177 3.0 15.0 0.00 0.01 0.01 55 1013.0
20200329011427 86 19 3.0 15.0 0.00 0.01 0.01 54 1012.9
20200329011322 86 139 3.0 15.0 0.00 0.01 0.01 54 1013.0
20200329011218 86 79 2.0 15.0 0.00 0.01 0.01 55 1013.1
20200329011116 86 55 2.0 15.0 0.00 0.01 0.01 56 1013.1
20200329011014 86 338 2.0 10.0 0.00 0.01 0.01 56 1013.0
20200329010909 86 128 1.0 10.0 0.00 0.01 0.01 57 1013.0
20200329010804 86 63 2.0 10.0 0.00 0.01 0.01 57 1013.1
20200329010656 86 109 2.0 10.0 0.00 0.01 0.01 56 1013.1
20200329010549 87 58 2.0 10.0 0.00 0.01 0.01 57 1013.1
20200329010445 87 65 2.0 10.0 0.00 0.01 0.01 56 1013.1
20200329010342 87 187 3.0 10.0 0.00 0.01 0.01 55 1013.1
20200329010234 87 53 3.0 10.0 0.00 0.01 0.01 57 1013.2
20200329010129 87 167 3.0 10.0 0.00 0.01 0.01 58 1013.2
20200329010024 86 119 3.0 10.0 0.00 0.01 0.01 57 1013.2
20200329005920 86 19 3.0 10.0 0.00 0.01 0.01 58 1013.1
20200329005817 86 182 3.0 10.0 0.00 0.01 0.01 58 1013.1
20200329005712 86 88 3.0 10.0 0.00 0.01 0.01 56 1013.1
20200329005609 86 98 3.0 10.0 0.00 0.01 0.01 56 1013.2
20200329005503 85 68 3.0 10.0 0.00 0.01 0.01 56 1013.2
20200329005359 85 109 3.0 10.0 0.00 0.01 0.01 56 1013.2
20200329005256 86 344 2.0 10.0 0.00 0.01 0.01 57 1013.3
20200329005148 86 55 2.0 10.0 0.00 0.01 0.01 57 1013.3
20200329005043 86 18 2.0 10.0 0.00 0.01 0.01 57 1013.3
20200329004936 86 45 2.0 10.0 0.00 0.01 0.01 57 1013.3
20200329004833 86 167 3.0 13.0 0.00 0.01 0.01 57 1013.3
20200329004727 86 126 3.0 13.0 0.00 0.01 0.01 56 1013.4
20200329004619 86 140 2.0 13.0 0.00 0.01 0.01 59 1013.3
20200329004515 86 96 2.0 13.0 0.00 0.01 0.01 57 1013.3
20200329004411 86 336 2.0 13.0 0.00 0.01 0.01 57 1013.3
20200329004309 86 56 2.0 13.0 0.00 0.01 0.01 58 1013.4
20200329004201 86 172 2.0 13.0 0.00 0.01 0.01 58 1013.4
20200329004058 86 136 2.0 13.0 0.00 0.01 0.01 58 1013.3
20200329003951 86 346 2.0 13.0 0.00 0.01 0.01 57 1013.5
20200329003846 86 49 2.0 14.0 0.00 0.01 0.01 58 1013.3
20200329003739 86 124 2.0 14.0 0.00 0.01 0.01 57 1013.3
20200329003635 86 131 2.0 14.0 0.00 0.01 0.01 58 1013.4
20200329003532 86 342 2.0 14.0 0.00 0.01 0.01 58 1013.4
20200329003425 86 97 2.0 14.0 0.00 0.01 0.01 58 1013.4
20200329003320 86 49 2.0 14.0 0.00 0.01 0.01 57 1013.5
20200329003218 86 54 3.0 14.0 0.00 0.01 0.01 56 1013.4
20200329003110 86 54 2.0 14.0 0.00 0.01 0.01 56 1013.5
20200329003005 86 155 3.0 14.0 0.00 0.01 0.01 56 1013.3
20200329002900 86 142 3.0 14.0 0.00 0.01 0.01 57 1013.4
20200329002756 86 94 3.0 14.0 0.00 0.01 0.01 57 1013.4
20200329002649 86 101 3.0 14.0 0.00 0.01 0.01 57 1013.4
20200329002542 86 194 4.0 14.0 0.00 0.01 0.01 57 1013.3
20200329002439 86 177 3.0 14.0 0.00 0.01 0.01 57 1013.3
20200329002336 86 167 3.0 14.0 0.00 0.01 0.01 57 1013.4
20200329002232 86 182 3.0 14.0 0.00 0.01 0.01 58 1013.3
20200329002127 86 191 3.0 14.0 0.00 0.02 0.01 57 1013.3
20200329002024 86 172 3.0 14.0 0.00 0.02 0.01 56 1013.3
20200329001920 86 143 3.0 14.0 0.00 0.02 0.01 56 1013.4
20200329001817 86 57 3.0 9.0 0.00 0.02 0.01 57 1013.4
20200329001712 86 52 3.0 9.0 0.00 0.02 0.01 56 1013.4
20200329001609 86 138 2.0 9.0 0.00 0.02 0.01 57 1013.3
20200329001502 86 133 2.0 9.0 0.00 0.02 0.01 56 1013.5
20200329001358 86 22 2.0 9.0 0.00 0.02 0.01 58 1013.3
20200329001255 86 6 2.0 9.0 0.00 0.02 0.01 59 1013.4
20200329001148 86 239 2.0 9.0 0.00 0.02 0.01 58 1013.4
20200329001042 86 141 2.0 9.0 0.00 0.02 0.01 59 1013.4
20200329000940 85 99 2.0 9.0 0.00 0.02 0.01 58 1013.4
20200329000837 85 165 2.0 9.0 0.00 0.02 0.01 61 1013.4
20200329000733 85 130 2.0 9.0 0.00 0.02 0.01 60 1013.4
20200329000627 85 330 2.0 9.0 0.00 0.02 0.01 62 1013.4
20200329000521 85 22 2.0 9.0 0.00 0.02 0.01 62 1013.5
20200329000417 85 29 2.0 9.0 0.00 0.02 0.01 63 1013.4
20200329000310 85 147 2.0 9.0 0.00 0.02 0.01 61 1013.4
20200329000203 85 204 2.0 9.0 0.00 0.02 0.01 61 1013.4
20200329000100 85 218 2.0 9.0 0.00 0.02 0.01 61 1013.5
20200328235955 85 150 2.0 9.0 0.00 0.02 0.01 62 1013.5
20200328235850 85 165 2.0 8.0 0.00 0.02 0.01 62 1013.4
20200328235748 85 182 2.0 8.0 0.00 0.02 0.01 61 1013.5
20200328235640 85 188 2.0 8.0 0.00 0.02 0.01 60 1013.5
20200328235533 85 188 2.0 8.0 0.00 0.02 0.01 63 1013.5
20200328235426 85 126 2.0 9.0 0.00 0.02 0.01 62 1013.5
20200328235323 85 126 2.0 9.0 0.00 0.02 0.01 62 1013.6
20200328235221 85 210 2.0 9.0 0.00 0.02 0.01 63 1013.6
20200328235113 85 259 2.0 9.0 0.00 0.02 0.01 62 1013.5
20200328235007 85 198 2.0 9.0 0.00 0.02 0.01 62 1013.6
20200328234902 85 161 2.0 9.0 0.00 0.02 0.01 60 1013.6
20200328234758 85 150 2.0 9.0 0.00 0.02 0.01 62 1013.6
20200328234651 84 255 2.0 9.0 0.00 0.02 0.01 62 1013.6
20200328234544 84 194 2.0 9.0 0.00 0.02 0.01 64 1013.6
20200328234437 84 259 3.0 9.0 0.00 0.02 0.01 62 1013.6
20200328234334 84 319 3.0 9.0 0.00 0.02 0.01 64 1013.5
20200328234230 84 63 3.0 9.0 0.00 0.02 0.01 64 1013.6
20200328234122 84 94 3.0 9.0 0.00 0.02 0.01 64 1013.6
20200328234016 84 128 2.0 9.0 0.00 0.02 0.01 64 1013.6
20200328233908 84 226 2.0 9.0 0.00 0.02 0.01 63 1013.6
20200328233805 84 188 2.0 9.0 0.00 0.02 0.01 63 1013.6
20200328233658 84 268 1.0 9.0 0.00 0.02 0.01 64 1013.6
20200328233551 84 204 1.0 9.0 0.00 0.02 0.01 65 1013.6
20200328233448 84 221 1.0 9.0 0.00 0.02 0.01 65 1013.6
20200328233343 84 104 1.0 6.0 0.00 0.02 0.01 64 1013.6
20200328233238 84 101 1.0 6.0 0.00 0.02 0.01 65 1013.7
20200328233132 84 152 1.0 6.0 0.00 0.02 0.01 66 1013.7
20200328233028 83 221 1.0 5.0 0.00 0.02 0.01 66 1013.7
20200328232921 83 221 1.0 5.0 0.00 0.02 0.01 67 1013.7
20200328232815 83 223 1.0 5.0 0.00 0.02 0.01 67 1013.6
20200328232711 82 182 1.0 10.0 0.00 0.02 0.01 66 1013.6
20200328232609 82 182 0.0 10.0 0.00 0.02 0.01 67 1013.7
20200328232501 82 147 1.0 10.0 0.00 0.02 0.01 67 1013.6
20200328232358 82 38 0.0 10.0 0.00 0.02 0.01 68 1013.7
20200328232256 82 203 0.0 10.0 0.00 0.03 0.01 69 1013.7
20200328232151 82 177 1.0 10.0 0.00 0.03 0.01 69 1013.7
20200328232046 82 177 1.0 10.0 0.00 0.03 0.01 69 1013.7
20200328231940 81 95 1.0 10.0 0.00 0.03 0.01 70 1013.7
20200328231836 81 34 1.0 10.0 0.00 0.03 0.01 71 1013.7
20200328231730 81 268 1.0 10.0 0.00 0.03 0.01 72 1013.7
20200328231624 81 267 1.0 10.0 0.00 0.03 0.01 71 1013.7
20200328231516 81 251 1.0 10.0 0.00 0.03 0.01 71 1013.7
20200328231409 81 198 1.0 10.0 0.00 0.03 0.01 71 1013.7
20200328231304 81 207 1.0 10.0 0.00 0.03 0.01 71 1013.7
20200328231159 81 187 1.0 10.0 0.00 0.03 0.01 72 1013.7
20200328231052 80 109 1.0 10.0 0.00 0.03 0.01 72 1013.7
20200328230948 80 109 1.0 10.0 0.00 0.03 0.01 71 1013.7
20200328230845 80 110 1.0 10.0 0.00 0.03 0.01 71 1013.7
20200328230738 80 182 1.0 8.0 0.00 0.03 0.01 71 1013.6
20200328230636 81 311 1.0 7.0 0.00 0.03 0.01 71 1013.7
20200328230530 81 230 1.0 7.0 0.00 0.03 0.01 70 1013.6
20200328230425 81 275 1.0 7.0 0.00 0.03 0.01 70 1013.7
20200328230322 81 140 1.0 7.0 0.00 0.03 0.01 70 1013.6
20200328230218 81 140 1.0 7.0 0.00 0.03 0.01 70 1013.7
20200328230113 81 120 1.0 7.0 0.00 0.03 0.01 70 1013.6
20200328230006 81 232 1.0 7.0 0.00 0.03 0.01 70 1013.6
20200328225859 81 209 1.0 7.0 0.00 0.03 0.01 70 1013.6
20200328225756 81 188 1.0 4.0 0.00 0.03 0.01 70 1013.6
20200328225653 81 213 1.0 4.0 0.00 0.03 0.01 70 1013.6
20200328225545 81 229 1.0 3.0 0.00 0.03 0.01 70 1013.6
20200328225440 81 177 2.0 11.0 0.00 0.03 0.01 69 1013.5
20200328225335 81 143 2.0 11.0 0.00 0.03 0.01 69 1013.6
20200328225232 81 206 2.0 11.0 0.00 0.03 0.01 69 1013.6
20200328225126 81 244 2.0 11.0 0.00 0.03 0.01 69 1013.5
20200328225021 81 141 2.0 11.0 0.00 0.03 0.01 69 1013.5
20200328224918 81 213 3.0 11.0 0.00 0.03 0.01 69 1013.5
20200328224811 81 254 3.0 11.0 0.00 0.05 0.01 69 1013.6
20200328224703 81 244 2.0 11.0 0.00 0.06 0.01 69 1013.6
20200328224600 81 172 2.0 11.0 0.00 0.06 0.01 69 1013.5
20200328224456 81 186 2.0 11.0 0.00 0.06 0.01 69 1013.5
20200328224351 81 266 2.0 9.0 0.00 0.06 0.01 69 1013.5
20200328224244 81 228 2.0 9.0 0.00 0.06 0.01 69 1013.5
20200328224140 81 182 2.0 9.0 0.00 0.06 0.01 69 1013.5
20200328224034 81 200 2.0 9.0 0.00 0.06 0.01 69 1013.6
20200328223926 81 134 2.0 9.0 0.00 0.06 0.01 70 1013.6
20200328223823 81 30 2.0 9.0 0.00 0.06 0.01 70 1013.5
20200328223721 81 30 2.0 9.0 0.00 0.06 0.01 69 1013.4
20200328223613 81 189 2.0 9.0 0.00 0.06 0.01 70 1013.5
20200328223507 81 264 2.0 9.0 0.00 0.06 0.01 70 1013.6
20200328223401 81 208 2.0 9.0 0.00 0.06 0.01 71 1013.5
20200328223257 81 263 2.0 9.0 0.00 0.06 0.01 71 1013.4
20200328223154 81 231 1.0 9.0 0.00 0.06 0.01 70 1013.4
20200328223047 81 286 2.0 9.0 0.00 0.06 0.01 71 1013.5
20200328222940 81 168 2.0 9.0 0.00 0.06 0.01 71 1013.5
20200328222837 81 257 2.0 9.0 0.00 0.06 0.01 71 1013.4
20200328222733 81 281 1.0 9.0 0.00 0.06 0.01 71 1013.4
20200328222627 81 140 2.0 9.0 0.00 0.06 0.01 71 1013.4
20200328222520 81 263 2.0 9.0 0.00 0.06 0.01 70 1013.4
20200328222416 81 223 2.0 9.0 0.00 0.06 0.01 70 1013.4
20200328222310 81 121 2.0 9.0 0.00 0.06 0.01 70 1013.4
20200328222203 81 240 2.0 9.0 0.00 0.06 0.01 70 1013.4
20200328222055 81 245 1.0 9.0 0.00 0.06 0.01 70 1013.4
20200328221953 81 105 1.0 8.0 0.00 0.06 0.01 70 1013.4
20200328221845 81 195 1.0 8.0 0.00 0.06 0.01 71 1013.3
20200328221739 80 214 1.0 8.0 0.00 0.06 0.01 71 1013.3
20200328221633 80 203 1.0 6.0 0.00 0.06 0.01 71 1013.3
20200328221529 80 224 1.0 6.0 0.00 0.06 0.01 71 1013.3
20200328221422 80 265 0.0 6.0 0.00 0.06 0.01 72 1013.2
20200328221315 80 229 1.0 6.0 0.00 0.06 0.01 71 1013.3
20200328221212 80 227 1.0 6.0 0.00 0.06 0.01 71 1013.3
20200328221107 80 78 1.0 6.0 0.00 0.06 0.01 72 1013.3
20200328220959 80 194 1.0 6.0 0.00 0.06 0.01 71 1013.3
20200328220853 80 118 1.0 6.0 0.00 0.06 0.01 72 1013.2
20200328220745 80 96 1.0 6.0 0.00 0.06 0.01 72 1013.2
20200328220642 79 182 1.0 7.0 0.00 0.06 0.01 72 1013.3
20200328220539 79 149 2.0 7.0 0.00 0.05 0.00 72 1013.2
20200328220432 79 154 2.0 7.0 0.00 0.05 0.00 73 1013.2
20200328220324 79 204 2.0 7.0 0.00 0.05 0.00 73 1013.2
20200328220220 79 234 2.0 7.0 0.00 0.05 0.00 73 1013.1
20200328220115 79 298 2.0 7.0 0.00 0.05 0.00 73 1013.1
20200328220007 79 208 1.0 7.0 0.00 0.05 0.00 73 1013.2
20200328215901 79 109 1.0 7.0 0.00 0.05 0.00 73 1013.1
20200328215757 79 207 2.0 7.0 0.00 0.05 0.00 73 1013.1
20200328215655 79 216 1.0 7.0 0.00 0.05 0.00 74 1013.1
20200328215547 79 193 1.0 7.0 0.00 0.05 0.00 74 1013.2
20200328215439 79 213 1.0 7.0 0.00 0.05 0.00 74 1013.1
20200328215336 78 263 1.0 7.0 0.00 0.05 0.00 75 1013.1
20200328215233 78 211 1.0 7.0 0.00 0.05 0.00 75 1013.1
20200328215127 78 226 1.0 7.0 0.00 0.05 0.00 75 1013.1
20200328215020 78 226 1.0 7.0 0.00 0.05 0.00 75 1013.1
20200328214917 78 230 1.0 7.0 0.00 0.05 0.00 75 1013.1
20200328214810 78 192 1.0 7.0 0.00 0.05 0.00 75 1013.1
20200328214703 78 182 0.0 6.0 0.00 0.05 0.00 76 1013.1
20200328214557 78 172 0.0 4.0 0.00 0.05 0.00 76 1013.1
20200328214451 78 110 1.0 4.0 0.00 0.05 0.00 76 1013.1
20200328214346 78 279 1.0 4.0 0.00 0.05 0.00 76 1013.1
20200328214239 78 132 1.0 4.0 0.00 0.05 0.00 77 1013.1
20200328214132 77 238 1.0 4.0 0.00 0.05 0.00 77 1013.0
20200328214029 77 255 1.0 3.0 0.00 0.05 0.00 77 1013.0
20200328213922 77 271 1.0 3.0 0.00 0.05 0.00 77 1013.0
20200328213814 77 336 1.0 1.0 0.00 0.05 0.00 77 1013.0
20200328213711 77 336 1.0 8.0 0.00 0.05 0.00 77 1012.9
20200328213607 77 336 2.0 8.0 0.00 0.05 0.00 78 1013.0
20200328213503 77 197 2.0 8.0 0.00 0.05 0.00 78 1013.0
20200328213356 77 219 2.0 8.0 0.00 0.05 0.00 79 1012.9
20200328213251 77 161 2.0 8.0 0.00 0.05 0.00 79 1012.9
20200328213148 77 186 1.0 8.0 0.00 0.05 0.00 80 1012.9
20200328213045 77 152 1.0 8.0 0.00 0.05 0.00 80 1012.9
20200328212938 77 275 1.0 8.0 0.00 0.05 0.00 80 1012.9
20200328212832 76 195 1.0 8.0 0.00 0.05 0.00 80 1012.9
20200328212730 76 241 1.0 8.0 0.00 0.05 0.00 80 1012.8
20200328212622 76 281 1.0 7.0 0.00 0.05 0.00 81 1012.8
20200328212516 76 241 1.0 7.0 0.00 0.05 0.00 81 1012.8
20200328212412 76 151 1.0 7.0 0.00 0.05 0.00 81 1012.8
20200328212308 76 269 1.0 7.0 0.00 0.05 0.00 81 1012.8
20200328212204 76 208 1.0 4.0 0.00 0.05 0.00 81 1012.7
20200328212057 76 223 0.0 4.0 0.00 0.05 0.00 81 1012.7
20200328211954 76 217 0.0 3.0 0.00 0.05 0.00 81 1012.7
20200328211846 76 287 0.0 3.0 0.00 0.05 0.00 81 1012.7
20200328211741 76 228 0.0 0.0 0.00 0.05 0.00 81 1012.6
20200328211636 76 228 0.0 3.0 0.00 0.05 0.00 81 1012.7
20200328211532 76 228 0.0 3.0 0.00 0.05 0.00 81 1012.6
20200328211426 76 232 0.0 3.0 0.00 0.05 0.00 81 1012.6
20200328211318 76 232 0.0 3.0 0.00 0.05 0.00 81 1012.6
20200328211211 75 247 0.0 2.0 0.00 0.05 0.00 81 1012.6
20200328211109 75 215 0.0 0.0 0.00 0.05 0.00 81 1012.6
20200328211006 75 212 0.0 0.0 0.00 0.05 0.00 81 1012.6
20200328210859 75 212 0.0 5.0 0.00 0.05 0.00 81 1012.6
20200328210754 75 212 0.0 5.0 0.00 0.05 0.00 81 1012.6
20200328210648 75 146 0.0 5.0 0.00 0.05 0.00 81 1012.5
20200328210544 75 150 0.0 5.0 0.00 0.05 0.00 81 1012.5
20200328210438 75 269 0.0 2.0 0.00 0.05 0.00 81 1012.6
20200328210334 75 177 0.0 2.0 0.00 0.05 0.00 81 1012.6
20200328210229 75 278 0.0 1.0 0.00 0.05 0.00 81 1012.6
20200328210121 75 278 0.0 0.0 0.00 0.05 0.00 81 1012.6
20200328210013 75 278 0.0 3.0 0.00 0.05 0.00 81 1012.6
20200328205911 75 278 0.0 3.0 0.00 0.05 0.00 81 1012.6
20200328205806 75 305 0.0 1.0 0.00 0.05 0.00 81 1012.6
20200328205701 75 305 0.0 1.0 0.00 0.05 0.00 81 1012.6
20200328205554 75 306 0.0 1.0 0.00 0.05 0.00 81 1012.6
20200328205451 75 306 0.0 1.0 0.00 0.05 0.00 81 1012.6
20200328205344 75 306 0.0 1.0 0.00 0.05 0.00 81 1012.6
20200328205236 75 306 0.0 1.0 0.00 0.05 0.00 81 1012.6
20200328205133 75 280 0.0 1.0 0.00 0.05 0.00 81 1012.6
20200328205028 75 265 0.0 1.0 0.00 0.05 0.00 81 1012.6
20200328204926 75 128 0.0 1.0 0.00 0.05 0.00 81 1012.6
20200328204819 75 128 0.0 0.0 0.00 0.05 0.00 81 1012.6
20200328204712 75 128 0.0 3.0 0.00 0.05 0.00 81 1012.5
20200328204609 75 131 0.0 3.0 0.00 0.05 0.00 81 1012.5
20200328204506 75 149 0.0 3.0 0.00 0.05 0.00 81 1012.5
20200328204359 75 149 0.0 3.0 0.00 0.05 0.00 81 1012.5
20200328204251 75 149 0.0 3.0 0.00 0.05 0.00 81 1012.4
20200328204144 75 148 0.0 3.0 0.00 0.05 0.00 81 1012.4
20200328204040 75 148 0.0 3.0 0.00 0.05 0.00 81 1012.4
20200328203934 75 148 0.0 3.0 0.00 0.05 0.00 81 1012.5
20200328203828 75 149 0.0 3.0 0.00 0.05 0.00 81 1012.4
20200328203720 75 148 0.0 2.0 0.00 0.05 0.00 81 1012.4
20200328203613 75 113 0.0 2.0 0.00 0.05 0.00 81 1012.4
20200328203508 75 132 0.0 2.0 0.00 0.05 0.00 81 1012.3
20200328203400 75 132 0.0 2.0 0.00 0.05 0.00 81 1012.4
20200328203258 75 213 0.0 2.0 0.00 0.05 0.00 81 1012.3
20200328203153 75 213 0.0 2.0 0.00 0.05 0.00 81 1012.3
20200328203048 75 126 0.0 2.0 0.00 0.05 0.00 81 1012.3
20200328202940 75 126 0.0 2.0 0.00 0.05 0.00 81 1012.3
20200328202837 75 134 0.0 1.0 0.00 0.05 0.00 81 1012.3
20200328202733 75 134 0.0 1.0 0.00 0.05 0.00 81 1012.3
20200328202626 75 134 0.0 0.0 0.00 0.05 0.00 81 1012.3
20200328202523 75 134 0.0 0.0 0.00 0.05 0.00 81 1012.2
20200328202418 75 134 0.0 0.0 0.00 0.05 0.00 81 1012.2
20200328202313 75 134 0.0 0.0 0.00 0.05 0.00 81 1012.3
20200328202208 75 134 0.0 0.0 0.00 0.05 0.00 81 1012.3
20200328202104 75 134 0.0 0.0 0.00 0.05 0.00 81 1012.3
20200328202000 75 134 0.0 2.0 0.00 0.05 0.00 81 1012.3
20200328201853 75 134 0.0 2.0 0.00 0.05 0.00 81 1012.3
20200328201745 75 134 0.0 2.0 0.00 0.05 0.00 81 1012.2
20200328201637 75 134 0.0 0.0 0.00 0.05 0.00 81 1012.2
20200328201535 75 134 0.0 0.0 0.00 0.05 0.00 81 1012.2
20200328201430 75 134 0.0 0.0 0.00 0.05 0.00 81 1012.2
20200328201324 75 134 0.0 0.0 0.00 0.05 0.00 81 1012.2
20200328201218 75 134 0.0 0.0 0.00 0.05 0.00 81 1012.2
20200328201112 75 134 0.0 0.0 0.00 0.05 0.00 81 1012.2
20200328201009 75 134 0.0 0.0 0.00 0.05 0.00 81 1012.2
20200328200901 75 134 0.0 0.0 0.00 0.05 0.00 81 1012.1
20200328200758 75 134 0.0 0.0 0.00 0.05 0.00 81 1012.1
20200328200656 75 134 0.0 0.0 0.00 0.05 0.00 81 1012.1
20200328200548 75 134 0.0 0.0 0.00 0.05 0.00 81 1012.1
20200328200446 75 134 0.0 0.0 0.00 0.05 0.00 81 1012.2
20200328200341 75 134 0.0 0.0 0.00 0.05 0.00 81 1012.1
20200328200236 75 134 0.0 0.0 0.00 0.05 0.00 81 1012.1
20200328200128 75 134 0.0 1.0 0.00 0.05 0.00 81 1012.1
20200328200023 75 134 0.0 1.0 0.00 0.05 0.00 81 1012.1
20200328195920 75 134 0.0 1.0 0.00 0.05 0.00 81 1012.0
20200328195813 75 226 0.0 1.0 0.00 0.05 0.00 81 1012.1
20200328195707 75 128 0.0 0.0 0.00 0.05 0.00 81 1012.1
20200328195602 75 128 0.0 0.0 0.00 0.05 0.00 81 1012.1
20200328195500 75 128 0.0 1.0 0.00 0.05 0.00 81 1012.1
20200328195356 75 128 0.0 1.0 0.00 0.05 0.00 81 1012.1
20200328195250 75 128 0.0 1.0 0.00 0.05 0.00 81 1012.0
20200328195146 75 128 0.0 1.0 0.00 0.05 0.00 81 1012.0
20200328195042 75 128 0.0 0.0 0.00 0.05 0.00 81 1012.1
20200328194935 75 128 0.0 2.0 0.00 0.05 0.00 81 1012.0
20200328194828 75 128 0.0 2.0 0.00 0.05 0.00 81 1012.0
20200328194725 75 177 0.0 2.0 0.00 0.05 0.00 81 1012.0
20200328194620 75 177 0.0 2.0 0.00 0.05 0.00 81 1012.0
20200328194514 75 177 0.0 2.0 0.00 0.05 0.00 81 1012.0
20200328194409 75 177 0.0 2.0 0.00 0.05 0.00 81 1011.9
20200328194305 75 182 0.0 0.0 0.00 0.05 0.00 81 1011.9
20200328194159 75 182 0.0 0.0 0.00 0.05 0.00 81 1011.9
20200328194052 75 182 0.0 0.0 0.00 0.05 0.00 81 1011.9
20200328193945 75 182 0.0 0.0 0.00 0.05 0.00 81 1011.9
20200328193843 75 182 0.0 0.0 0.00 0.05 0.00 81 1011.9
20200328193735 75 182 0.0 0.0 0.00 0.05 0.00 81 1011.9
20200328193629 75 182 0.0 4.0 0.00 0.05 0.00 81 1011.8
20200328193524 75 182 0.0 4.0 0.00 0.05 0.00 81 1011.8
20200328193420 75 182 0.0 4.0 0.00 0.05 0.00 81 1011.8
20200328193316 75 182 0.0 7.0 0.00 0.05 0.00 81 1011.8
20200328193209 75 190 0.0 7.0 0.00 0.05 0.00 81 1011.8
20200328193102 75 190 0.0 7.0 0.00 0.05 0.00 81 1011.8
20200328192959 75 190 0.0 7.0 0.00 0.05 0.00 81 1011.7
20200328192854 75 190 0.0 7.0 0.00 0.05 0.00 81 1011.8
20200328192751 75 285 0.0 7.0 0.00 0.05 0.00 81 1011.8
20200328192649 75 295 0.0 7.0 0.00 0.05 0.00 82 1011.8
20200328192544 75 255 0.0 7.0 0.00 0.05 0.00 82 1011.8
20200328192439 75 255 0.0 7.0 0.00 0.05 0.00 82 1011.8
20200328192332 75 255 0.0 7.0 0.00 0.05 0.00 82 1011.8
20200328192229 75 255 0.0 7.0 0.00 0.05 0.00 82 1011.8
20200328192123 75 255 0.0 7.0 0.00 0.05 0.00 82 1011.8
20200328192016 75 255 0.0 7.0 0.00 0.05 0.00 82 1011.8
20200328191910 75 226 0.0 7.0 0.00 0.05 0.00 82 1011.8
20200328191804 75 282 0.0 7.0 0.00 0.05 0.00 82 1011.8
20200328191659 75 294 0.0 7.0 0.00 0.05 0.00 82 1011.8
20200328191553 75 294 0.0 7.0 0.00 0.05 0.00 82 1011.7
20200328191449 75 303 0.0 7.0 0.00 0.05 0.00 82 1011.7
20200328191342 75 307 0.0 7.0 0.00 0.05 0.00 82 1011.7
20200328191236 75 221 0.0 0.0 0.00 0.05 0.00 82 1011.7
20200328191133 75 221 0.0 0.0 0.00 0.05 0.00 82 1011.7
20200328191025 75 221 0.0 2.0 0.00 0.05 0.00 82 1011.7
20200328190921 75 310 0.0 2.0 0.00 0.05 0.00 82 1011.7
20200328190816 75 310 0.0 2.0 0.00 0.05 0.00 82 1011.7
20200328190710 75 310 1.0 2.0 0.00 0.05 0.00 82 1011.7
20200328190604 75 310 0.0 2.0 0.00 0.05 0.00 82 1011.6
20200328190500 75 310 0.0 0.0 0.00 0.05 0.00 82 1011.6
20200328190357 75 310 1.0 3.0 0.00 0.05 0.00 82 1011.6
20200328190250 75 310 1.0 3.0 0.00 0.05 0.00 82 1011.6
20200328190145 75 310 0.0 3.0 0.00 0.05 0.00 82 1011.6
20200328190042 75 307 0.0 3.0 0.00 0.05 0.00 82 1011.6
20200328185935 75 307 0.0 3.0 0.00 0.05 0.00 82 1011.6
20200328185829 75 319 0.0 3.0 0.00 0.05 0.00 82 1011.6
20200328185724 75 206 0.0 2.0 0.00 0.05 0.00 82 1011.5
20200328185618 75 303 0.0 2.0 0.00 0.05 0.00 82 1011.6
20200328185511 75 303 0.0 2.0 0.00 0.05 0.00 82 1011.6
20200328185403 75 303 0.0 2.0 0.00 0.05 0.00 82 1011.5
20200328185300 75 303 0.0 2.0 0.00 0.05 0.00 82 1011.5
20200328185155 75 303 0.0 2.0 0.00 0.05 0.00 82 1011.5
20200328185050 75 303 0.0 2.0 0.00 0.05 0.00 82 1011.4
20200328184948 75 303 0.0 2.0 0.00 0.05 0.00 82 1011.4
20200328184846 75 303 0.0 2.0 0.00 0.05 0.00 82 1011.5
20200328184742 75 303 0.0 2.0 0.00 0.05 0.00 82 1011.5
20200328184636 75 303 0.0 2.0 0.00 0.05 0.00 82 1011.5
20200328184529 75 302 0.0 2.0 0.00 0.05 0.00 82 1011.5
20200328184425 75 214 0.0 0.0 0.00 0.05 0.00 82 1011.4
20200328184320 75 214 0.0 0.0 0.00 0.05 0.00 82 1011.5
20200328184212 75 214 0.0 0.0 0.00 0.06 0.00 82 1011.5
20200328184107 75 214 0.0 0.0 0.00 0.06 0.00 82 1011.5
20200328184004 75 214 0.0 1.0 0.00 0.06 0.00 82 1011.4
20200328183858 75 214 0.0 1.0 0.00 0.06 0.00 82 1011.4
20200328183752 75 214 0.0 0.0 0.00 0.06 0.00 82 1011.4
20200328183647 75 214 0.0 0.0 0.00 0.06 0.00 82 1011.4
20200328183544 75 214 0.0 0.0 0.00 0.06 0.00 82 1011.4
20200328183437 75 214 0.0 0.0 0.00 0.06 0.00 82 1011.4
20200328183333 75 214 0.0 0.0 0.00 0.06 0.00 82 1011.4
20200328183229 75 214 0.0 0.0 0.00 0.06 0.00 82 1011.4
20200328183121 75 214 0.0 0.0 0.00 0.06 0.00 82 1011.3
20200328183016 75 214 0.0 2.0 0.00 0.06 0.00 82 1011.4
20200328182911 75 214 0.0 1.0 0.00 0.06 0.00 82 1011.3
20200328182807 75 213 0.0 0.0 0.00 0.07 0.00 82 1011.3
20200328182701 75 214 0.0 0.0 0.00 0.07 0.00 82 1011.3
20200328182553 75 214 0.0 0.0 0.00 0.07 0.00 82 1011.3
20200328182446 75 214 0.0 0.0 0.00 0.07 0.00 82 1011.2
20200328182341 75 214 0.0 1.0 0.00 0.07 0.00 82 1011.2
20200328182239 75 214 0.0 1.0 0.00 0.07 0.00 82 1011.3
20200328182133 75 133 0.0 0.0 0.00 0.07 0.00 82 1011.3
20200328182027 75 133 0.0 0.0 0.00 0.07 0.00 82 1011.3
20200328181922 75 133 0.0 0.0 0.00 0.07 0.00 82 1011.3
20200328181819 75 133 0.0 0.0 0.00 0.07 0.00 82 1011.2
20200328181712 75 133 0.0 0.0 0.00 0.07 0.00 82 1011.2
20200328181604 75 133 0.0 0.0 0.00 0.07 0.00 82 1011.2
20200328181501 75 133 0.0 1.0 0.00 0.07 0.00 82 1011.2
20200328181357 75 133 0.0 1.0 0.00 0.07 0.00 82 1011.3
20200328181252 75 133 0.0 1.0 0.00 0.07 0.00 82 1011.2
20200328181145 75 133 0.0 0.0 0.00 0.07 0.00 82 1011.2
20200328181039 75 133 0.0 0.0 0.00 0.07 0.00 82 1011.2
20200328180933 75 133 0.0 0.0 0.00 0.07 0.00 82 1011.2
20200328180826 75 134 0.0 1.0 0.00 0.07 0.00 82 1011.2
20200328180723 75 134 0.0 1.0 0.00 0.07 0.00 82 1011.1
20200328180619 75 132 0.0 1.0 0.00 0.07 0.00 82 1011.2
20200328180511 75 132 0.0 0.0 0.00 0.07 0.00 82 1011.2
20200328180405 75 132 0.0 0.0 0.00 0.07 0.00 82 1011.1
20200328180301 75 132 0.0 0.0 0.00 0.07 0.00 82 1011.1
20200328180156 75 132 0.0 0.0 0.00 0.07 0.00 82 1011.1
20200328180050 75 132 0.0 0.0 0.00 0.07 0.00 82 1011.1
20200328175942 75 132 0.0 1.0 0.00 0.07 0.00 82 1011.1
20200328175839 75 132 0.0 1.0 0.00 0.07 0.00 81 1011.1
20200328175736 75 190 0.0 0.0 0.00 0.07 0.00 81 1011.0
20200328175631 75 190 0.0 0.0 0.00 0.07 0.00 81 1011.0
20200328175523 75 190 0.0 0.0 0.00 0.07 0.00 81 1011.0
20200328175417 75 190 0.0 0.0 0.00 0.07 0.00 81 1011.0
20200328175312 75 190 0.0 0.0 0.00 0.07 0.00 81 1011.0
20200328175209 75 190 0.0 0.0 0.00 0.07 0.00 81 1011.0
20200328175102 75 191 0.0 0.0 0.00 0.07 0.00 81 1011.0
20200328174959 75 193 0.0 0.0 0.00 0.07 0.00 81 1011.0
20200328174856 75 193 0.0 0.0 0.00 0.07 0.00 81 1011.0
20200328174748 75 193 0.0 0.0 0.00 0.07 0.00 81 1011.0
20200328174646 75 193 0.0 0.0 0.00 0.07 0.00 81 1011.0
20200328174541 75 193 0.0 0.0 0.00 0.07 0.00 81 1011.0
20200328174436 75 193 0.0 0.0 0.00 0.07 0.00 81 1011.0
20200328174329 75 193 0.0 0.0 0.00 0.08 0.00 81 1011.0
20200328174225 75 193 0.0 0.0 0.00 0.08 0.00 81 1011.0
20200328174118 75 193 0.0 0.0 0.00 0.08 0.00 81 1011.0
20200328174011 75 193 0.0 0.0 0.00 0.08 0.00 81 1011.1
20200328173904 75 193 0.0 0.0 0.00 0.08 0.00 81 1011.1
20200328173757 75 193 0.0 0.0 0.00 0.08 0.00 81 1011.0
20200328173652 75 193 0.0 0.0 0.00 0.08 0.00 81 1011.0
20200328173547 75 193 0.0 0.0 0.00 0.08 0.00 81 1011.1
20200328173440 75 193 0.0 0.0 0.00 0.08 0.00 81 1011.1
20200328173336 75 217 0.0 0.0 0.00 0.08 0.00 81 1011.1
20200328173229 75 99 0.0 0.0 0.00 0.08 0.00 81 1011.1
20200328173126 75 99 0.0 0.0 0.00 0.08 0.00 81 1011.1
20200328173021 75 99 0.0 0.0 0.00 0.08 0.00 81 1011.1
20200328172915 75 99 0.0 0.0 0.00 0.08 0.00 81 1011.1
20200328172813 75 11 0.0 0.0 0.00 0.08 0.00 81 1011.2
20200328172709 75 11 0.0 0.0 0.00 0.08 0.00 81 1011.2
20200328172603 75 11 0.0 0.0 0.00 0.08 0.00 81 1011.1
20200328172456 75 11 0.0 0.0 0.00 0.08 0.00 81 1011.1
20200328172353 75 11 0.0 0.0 0.00 0.08 0.00 81 1011.2
20200328172246 75 11 0.0 0.0 0.00 0.09 0.00 81 1011.2
20200328172143 75 11 0.0 0.0 0.00 0.09 0.00 81 1011.2
20200328172041 75 11 0.0 0.0 0.00 0.09 0.00 81 1011.1
20200328171933 75 11 0.0 0.0 0.00 0.09 0.00 81 1011.1
20200328171828 75 11 0.0 0.0 0.00 0.10 0.00 81 1011.2
20200328171726 75 11 0.0 0.0 0.00 0.10 0.00 81 1011.1
20200328171623 75 11 0.0 0.0 0.00 0.10 0.00 81 1011.2
20200328171518 75 11 0.0 0.0 0.00 0.10 0.00 81 1011.2
20200328171412 75 24 0.0 0.0 0.00 0.10 0.00 81 1011.2
20200328171308 75 271 0.0 0.0 0.00 0.10 0.00 81 1011.2
20200328171205 75 271 0.0 0.0 0.00 0.10 0.00 81 1011.2
20200328171058 75 271 0.0 0.0 0.00 0.10 0.00 81 1011.2
20200328170951 75 271 0.0 0.0 0.00 0.10 0.00 81 1011.2
20200328170848 75 271 0.0 0.0 0.00 0.10 0.00 81 1011.3
20200328170743 75 271 0.0 0.0 0.00 0.10 0.00 81 1011.2
20200328170639 75 271 0.0 0.0 0.00 0.10 0.00 81 1011.2
20200328170537 75 271 0.0 0.0 0.00 0.10 0.00 81 1011.3
20200328170433 75 271 0.0 0.0 0.00 0.10 0.00 81 1011.3
20200328170327 75 271 0.0 0.0 0.00 0.10 0.00 81 1011.3
20200328170220 75 271 0.0 0.0 0.00 0.10 0.00 80 1011.3
20200328170116 75 271 0.0 0.0 0.00 0.10 0.00 80 1011.3
20200328170010 75 253 0.0 0.0 0.00 0.10 0.00 80 1011.3
20200328165905 75 253 0.0 0.0 0.00 0.10 0.00 80 1011.4
20200328165802 75 253 0.0 0.0 0.00 0.10 0.00 80 1011.3
20200328165659 75 253 0.0 0.0 0.00 0.10 0.00 80 1011.4
20200328165555 75 253 0.0 0.0 0.00 0.10 0.00 80 1011.4
20200328165449 75 253 0.0 0.0 0.00 0.10 0.00 80 1011.4
20200328165347 75 253 0.0 0.0 0.00 0.10 0.00 80 1011.4
20200328165243 75 253 0.0 0.0 0.00 0.10 0.00 80 1011.4
20200328165137 75 253 0.0 0.0 0.00 0.10 0.00 80 1011.4
20200328165032 75 253 0.0 0.0 0.00 0.10 0.00 80 1011.4
20200328164928 75 253 0.0 0.0 0.00 0.10 0.00 80 1011.4
20200328164821 75 253 0.0 0.0 0.00 0.10 0.00 80 1011.4
20200328164714 75 253 0.0 0.0 0.00 0.10 0.00 80 1011.4
20200328164608 75 253 0.0 0.0 0.00 0.10 0.00 80 1011.4
20200328164503 75 253 0.0 0.0 0.00 0.10 0.00 80 1011.4
20200328164358 75 253 0.0 0.0 0.00 0.10 0.00 80 1011.5
20200328164252 75 253 0.0 0.0 0.00 0.10 0.00 80 1011.5
20200328164147 75 253 0.0 1.0 0.00 0.10 0.00 80 1011.5
20200328164041 75 253 0.0 1.0 0.00 0.10 0.00 80 1011.5
20200328163935 75 253 0.0 0.0 0.00 0.10 0.00 80 1011.5
20200328163826 75 253 0.0 0.0 0.00 0.10 0.00 80 1011.6
20200328163724 75 253 0.0 0.0 0.00 0.10 0.00 80 1011.6
20200328163618 75 253 0.0 0.0 0.00 0.10 0.00 80 1011.6
20200328163512 75 253 0.0 1.0 0.00 0.10 0.00 80 1011.6
20200328163406 75 253 0.0 1.0 0.00 0.10 0.00 80 1011.6
20200328163259 75 252 0.0 0.0 0.00 0.10 0.00 80 1011.7
20200328163157 75 252 0.0 0.0 0.00 0.10 0.00 80 1011.7
20200328163054 75 252 0.0 0.0 0.00 0.10 0.00 80 1011.7
20200328162947 75 252 0.0 0.0 0.00 0.10 0.00 80 1011.7
20200328162841 75 252 0.0 0.0 0.00 0.10 0.00 80 1011.7
20200328162736 75 252 0.0 2.0 0.00 0.10 0.00 80 1011.8
20200328162632 75 252 0.0 2.0 0.00 0.10 0.00 79 1011.8
20200328162526 75 252 0.0 2.0 0.00 0.10 0.00 79 1011.8
20200328162419 75 252 0.0 2.0 0.00 0.10 0.00 79 1011.8
20200328162313 75 256 0.0 1.0 0.00 0.10 0.00 79 1011.8
20200328162205 75 256 0.0 0.0 0.00 0.09 0.00 79 1011.8
20200328162057 75 256 0.0 0.0 0.00 0.09 0.00 79 1011.8
20200328161952 75 256 0.0 0.0 0.00 0.09 0.00 79 1011.9
20200328161847 75 256 0.0 0.0 0.00 0.09 0.00 78 1011.8
20200328161743 75 256 0.0 0.0 0.00 0.09 0.00 78 1011.8
20200328161637 75 256 0.0 0.0 0.00 0.09 0.00 78 1011.8
20200328161530 75 256 0.0 0.0 0.00 0.09 0.00 78 1011.8
20200328161427 75 256 0.0 0.0 0.00 0.09 0.00 78 1011.8
20200328161320 75 256 0.0 0.0 0.00 0.09 0.00 78 1011.8
20200328161215 75 256 0.0 0.0 0.00 0.09 0.00 78 1011.8
20200328161113 75 256 0.0 0.0 0.00 0.09 0.00 78 1011.8
20200328161010 75 256 0.0 0.0 0.00 0.09 0.00 78 1011.7
20200328160906 75 256 0.0 0.0 0.00 0.09 0.00 78 1011.7
20200328160800 75 256 0.0 0.0 0.00 0.09 0.00 78 1011.8
20200328160657 75 256 0.0 0.0 0.00 0.10 0.00 78 1011.7
20200328160553 75 256 0.0 0.0 0.00 0.10 0.00 78 1011.7
20200328160447 75 256 0.0 0.0 0.00 0.10 0.00 78 1011.8
20200328160339 75 256 0.0 1.0 0.00 0.11 0.00 78 1011.8
20200328160231 75 256 0.0 1.0 0.00 0.11 0.00 78 1011.8
20200328160126 75 256 0.0 1.0 0.00 0.11 0.00 78 1011.9
20200328160021 75 256 0.0 0.0 0.00 0.11 0.00 78 1011.9
20200328155915 75 256 0.0 0.0 0.00 0.11 0.00 78 1011.9
20200328155808 75 256 0.0 1.0 0.00 0.11 0.00 78 1011.9
20200328155704 75 256 0.0 0.0 0.00 0.11 0.00 78 1011.9
20200328155557 75 256 0.0 0.0 0.00 0.11 0.00 78 1012.0
20200328155449 75 256 0.0 0.0 0.00 0.11 0.00 78 1011.9
20200328155347 75 256 0.0 0.0 0.00 0.11 0.00 78 1011.9
20200328155242 75 256 0.0 0.0 0.00 0.11 0.00 78 1012.0
20200328155138 75 256 0.0 0.0 0.00 0.11 0.00 78 1012.0
20200328155032 75 256 0.0 0.0 0.00 0.11 0.00 78 1012.0
20200328154928 75 256 0.0 0.0 0.00 0.11 0.00 78 1012.0
20200328154822 75 256 0.0 0.0 0.00 0.11 0.00 78 1012.0
20200328154714 75 256 0.0 0.0 0.00 0.11 0.00 78 1012.0
20200328154611 75 256 0.0 0.0 0.00 0.11 0.00 78 1012.1
20200328154509 75 256 0.0 0.0 0.00 0.11 0.00 78 1012.1
20200328154401 75 256 0.0 0.0 0.00 0.11 0.00 78 1012.1
20200328154255 76 256 0.0 0.0 0.00 0.11 0.00 78 1012.1
20200328154150 76 256 0.0 0.0 0.00 0.11 0.00 78 1012.1
20200328154045 76 256 0.0 3.0 0.00 0.11 0.00 78 1012.2
20200328153941 76 256 0.0 3.0 0.00 0.11 0.00 78 1012.2
20200328153834 76 243 0.0 1.0 0.00 0.11 0.00 78 1012.2
20200328153727 76 243 0.0 0.0 0.00 0.11 0.00 78 1012.2
20200328153624 76 243 0.0 2.0 0.00 0.11 0.00 78 1012.2
20200328153519 76 243 0.0 2.0 0.00 0.11 0.00 78 1012.2
20200328153414 76 243 0.0 2.0 0.00 0.11 0.00 78 1012.2
20200328153308 76 243 0.0 0.0 0.00 0.11 0.00 78 1012.3
20200328153204 76 243 0.0 0.0 0.00 0.11 0.00 78 1012.3
20200328153057 76 243 0.0 0.0 0.00 0.11 0.00 78 1012.3
20200328152951 76 243 0.0 0.0 0.00 0.11 0.00 78 1012.3
20200328152848 76 243 0.0 0.0 0.00 0.11 0.00 78 1012.3
20200328152740 76 243 0.0 0.0 0.00 0.11 0.00 78 1012.3
20200328152638 76 243 0.0 0.0 0.00 0.11 0.00 78 1012.3
20200328152534 76 243 0.0 0.0 0.00 0.11 0.00 78 1012.3
20200328152432 76 243 0.0 3.0 0.00 0.11 0.00 78 1012.3
20200328152327 76 243 0.0 3.0 0.00 0.11 0.00 78 1012.3
20200328152220 76 220 0.0 2.0 0.00 0.11 0.00 78 1012.2
20200328152116 76 241 0.0 0.0 0.00 0.11 0.00 78 1012.3
20200328152011 76 241 0.0 0.0 0.00 0.11 0.00 78 1012.3
20200328151904 76 241 0.0 0.0 0.00 0.11 0.00 78 1012.2
20200328151756 76 241 0.0 0.0 0.00 0.11 0.00 78 1012.2
20200328151648 76 241 0.0 0.0 0.00 0.11 0.00 78 1012.2
20200328151546 76 241 0.0 0.0 0.00 0.11 0.00 78 1012.2
20200328151438 76 241 0.0 0.0 0.00 0.11 0.00 78 1012.2
20200328151331 76 241 0.0 0.0 0.00 0.11 0.00 78 1012.2
20200328151225 76 241 0.0 0.0 0.00 0.11 0.00 78 1012.2
20200328151121 76 241 0.0 0.0 0.00 0.11 0.00 78 1012.2
20200328151019 76 241 0.0 0.0 0.00 0.11 0.00 78 1012.2
20200328150911 76 241 0.0 0.0 0.00 0.11 0.00 78 1012.2
20200328150806 76 241 0.0 0.0 0.00 0.11 0.00 78 1012.3
20200328150701 76 241 0.0 0.0 0.00 0.11 0.00 78 1012.3
20200328150556 76 241 0.0 0.0 0.00 0.11 0.00 78 1012.3
20200328150450 76 241 0.0 0.0 0.00 0.11 0.00 78 1012.4
20200328150339 76 241 0.0 0.0 0.00 0.11 0.00 78 1012.3
20200328150235 76 241 0.0 0.0 0.00 0.11 0.00 78 1012.4
20200328150133 76 241 0.0 0.0 0.00 0.11 0.00 78 1012.4
20200328150025 76 241 0.0 0.0 0.00 0.11 0.00 78 1012.5
20200328145922 76 241 0.0 0.0 0.00 0.11 0.00 78 1012.5
20200328145820 76 241 0.0 0.0 0.00 0.11 0.00 78 1012.4
20200328145714 76 241 0.0 0.0 0.00 0.11 0.00 78 1012.5
20200328145608 76 240 0.0 0.0 0.00 0.11 0.00 78 1012.4
20200328145504 76 240 0.0 0.0 0.00 0.11 0.00 78 1012.5
20200328145400 76 240 0.0 0.0 0.00 0.11 0.00 78 1012.5
20200328145253 77 240 0.0 0.0 0.00 0.11 0.00 78 1012.5
20200328145147 77 240 0.0 0.0 0.00 0.11 0.00 78 1012.5
20200328145040 77 240 0.0 0.0 0.00 0.11 0.00 78 1012.5
20200328144934 77 240 0.0 2.0 0.00 0.11 0.00 78 1012.5
20200328144803 76 240 0.0 2.0 0.00 0.11 0.00 78 1012.6
20200328144655 76 240 0.0 2.0 0.00 0.11 0.00 78 1012.6
20200328144549 76 241 0.0 2.0 0.00 0.11 0.00 78 1012.6
20200328144439 76 269 0.0 0.0 0.00 0.11 0.00 78 1012.6
20200328144335 76 269 0.0 0.0 0.00 0.11 0.00 78 1012.6
20200328144227 76 269 0.0 4.0 0.00 0.11 0.00 78 1012.7
20200328144123 76 269 0.0 4.0 0.00 0.11 0.00 78 1012.7
20200328144021 76 269 0.0 4.0 0.00 0.11 0.00 78 1012.7
20200328143915 76 269 0.0 4.0 0.00 0.11 0.00 78 1012.7
20200328143811 76 271 0.0 4.0 0.00 0.11 0.00 78 1012.7
20200328143707 76 306 0.0 4.0 0.00 0.11 0.00 78 1012.7
20200328143600 76 305 0.0 3.0 0.00 0.11 0.00 78 1012.7
20200328143453 76 310 0.0 3.0 0.00 0.11 0.00 78 1012.7
20200328143344 76 310 0.0 3.0 0.00 0.11 0.00 77 1012.8
20200328143241 76 342 0.0 3.0 0.00 0.11 0.00 77 1012.8
20200328143138 76 74 0.0 1.0 0.00 0.11 0.00 77 1012.8
20200328143032 76 74 0.0 0.0 0.00 0.11 0.00 77 1012.8
20200328142928 76 74 0.0 0.0 0.00 0.11 0.00 77 1012.7
20200328142821 76 74 0.0 0.0 0.00 0.11 0.00 77 1012.7
20200328142715 76 74 0.0 0.0 0.00 0.11 0.00 77 1012.7
20200328142610 76 74 0.0 0.0 0.00 0.11 0.00 77 1012.8
20200328142444 76 74 0.0 0.0 0.00 0.11 0.00 77 1012.8
20200328142325 76 74 0.0 0.0 0.00 0.11 0.00 76 1012.8
20200328142219 76 74 0.0 0.0 0.00 0.11 0.00 76 1012.9
20200328142114 76 74 0.0 0.0 0.00 0.11 0.00 76 1012.8
20200328142006 76 74 0.0 0.0 0.00 0.11 0.00 76 1012.8
20200328141843 76 74 0.0 0.0 0.00 0.11 0.00 76 1012.8
20200328141735 76 74 0.0 0.0 0.00 0.11 0.00 76 1012.8
20200328141631 76 74 0.0 0.0 0.00 0.11 0.00 76 1012.9
20200328141525 76 74 0.0 0.0 0.00 0.11 0.00 76 1012.9
20200328141417 76 74 0.0 0.0 0.00 0.11 0.00 76 1012.9
20200328141314 76 74 0.0 0.0 0.00 0.11 0.00 76 1013.0
20200328141214 76 74 0.0 0.0 0.00 0.11 0.00 76 1013.0
20200328141052 76 74 0.0 0.0 0.00 0.11 0.00 76 1013.0
20200328140945 76 74 0.0 0.0 0.00 0.11 0.00 76 1013.0
20200328140701 76 74 0.0 1.0 0.00 0.11 0.00 76 1013.1
20200328140549 76 1 0.0 0.0 0.00 0.11 0.00 76 1013.1
20200328140431 77 1 0.0 0.0 0.00 0.11 0.00 75 1013.1
20200328140327 77 1 0.0 0.0 0.00 0.11 0.00 76 1013.1
20200328140221 77 1 0.0 0.0 0.00 0.11 0.00 76 1013.1
20200328140118 77 1 0.0 0.0 0.00 0.11 0.00 75 1013.1
20200328140011 77 1 0.0 0.0 0.00 0.11 0.11 75 1013.1
20200328135903 77 1 0.0 0.0 0.00 0.11 0.11 75 1013.1
20200328135800 77 1 0.0 0.0 0.00 0.11 0.11 75 1013.1
20200328135656 77 1 0.0 0.0 0.00 0.11 0.11 75 1013.1
20200328135549 77 1 0.0 0.0 0.00 0.11 0.11 75 1013.2
20200328135443 77 1 0.0 0.0 0.00 0.11 0.11 75 1013.1
20200328135336 77 1 0.0 0.0 0.00 0.11 0.11 75 1013.2
20200328135229 77 1 0.0 0.0 0.00 0.11 0.11 75 1013.2
20200328135126 77 1 0.0 0.0 0.00 0.11 0.11 75 1013.2
20200328135020 77 1 0.0 0.0 0.00 0.11 0.11 75 1013.1
20200328134915 77 1 0.0 0.0 0.00 0.11 0.11 74 1013.1
20200328134812 77 1 0.0 0.0 0.00 0.11 0.11 74 1013.1
20200328134708 77 1 0.0 0.0 0.00 0.11 0.11 74 1013.1
20200328134602 77 1 0.0 0.0 0.00 0.11 0.11 74 1013.1
20200328134458 77 1 0.0 0.0 0.00 0.11 0.11 74 1013.1
20200328134355 77 1 0.0 0.0 0.00 0.11 0.11 74 1013.1
20200328134248 77 1 0.0 0.0 0.00 0.11 0.11 74 1013.1
20200328134140 77 1 0.0 0.0 0.00 0.11 0.11 74 1013.1
20200328134033 77 1 0.0 0.0 0.00 0.11 0.11 74 1013.1
20200328133930 77 1 0.0 0.0 0.00 0.11 0.11 74 1013.1
20200328133826 77 1 0.0 0.0 0.00 0.11 0.11 74 1013.1
20200328133718 77 1 0.0 0.0 0.00 0.11 0.11 74 1013.1
20200328133611 77 1 0.0 0.0 0.00 0.11 0.11 74 1013.1
20200328133507 77 1 0.0 0.0 0.00 0.11 0.11 74 1013.1
20200328133402 78 1 0.0 0.0 0.00 0.11 0.11 73 1013.2
20200328133258 78 1 0.0 0.0 0.00 0.11 0.11 73 1013.1
20200328133151 78 1 0.0 0.0 0.00 0.11 0.11 73 1013.1
20200328133047 78 1 0.0 0.0 0.00 0.11 0.11 73 1013.1
20200328132944 78 1 0.0 0.0 0.00 0.11 0.11 73 1013.1
20200328132837 78 1 0.0 0.0 0.00 0.11 0.11 73 1013.1
20200328132730 78 1 0.0 0.0 0.00 0.11 0.11 73 1013.1
20200328132625 78 1 0.0 0.0 0.00 0.11 0.11 73 1013.2
20200328132521 78 1 0.0 0.0 0.00 0.11 0.11 73 1013.2
20200328132415 78 1 0.0 0.0 0.00 0.11 0.11 73 1013.2
20200328132308 78 1 0.0 0.0 0.00 0.11 0.11 73 1013.2
20200328132206 78 1 0.0 0.0 0.00 0.11 0.11 73 1013.1
20200328132058 78 1 0.0 0.0 0.00 0.11 0.11 73 1013.2
20200328131952 78 1 0.0 0.0 0.00 0.11 0.11 73 1013.1
20200328131845 78 1 0.0 0.0 0.00 0.11 0.11 73 1013.1
20200328131742 78 1 0.0 0.0 0.00 0.11 0.11 73 1013.1
20200328131635 78 1 0.0 2.0 0.00 0.11 0.11 73 1013.1
20200328131528 78 1 0.0 2.0 0.00 0.11 0.11 73 1013.1
20200328131424 78 76 0.0 1.0 0.00 0.11 0.11 73 1013.1
20200328131321 78 76 0.0 0.0 0.00 0.11 0.11 73 1013.2
20200328131214 78 76 0.0 0.0 0.00 0.11 0.11 73 1013.2
20200328131108 78 76 0.0 0.0 0.00 0.11 0.11 72 1013.2
20200328131004 78 76 0.0 0.0 0.00 0.11 0.11 73 1013.2
20200328130901 78 76 0.0 0.0 0.00 0.11 0.11 72 1013.2
20200328130754 78 76 0.0 0.0 0.00 0.11 0.11 72 1013.2
20200328130651 78 76 0.0 6.0 0.00 0.11 0.11 72 1013.1
20200328130547 78 76 0.0 6.0 0.00 0.11 0.11 72 1013.2
20200328130444 78 76 0.0 6.0 0.00 0.11 0.11 73 1013.2
20200328130337 78 138 0.0 2.0 0.00 0.11 0.11 73 1013.2
20200328130234 78 232 0.0 0.0 0.00 0.11 0.11 73 1013.1
20200328130132 78 232 0.0 0.0 0.00 0.11 0.11 73 1013.1
20200328130024 78 232 0.0 2.0 0.00 0.11 0.11 73 1013.1
20200328125917 78 232 0.0 2.0 0.00 0.11 0.11 73 1013.0
20200328125814 78 130 0.0 2.0 0.00 0.11 0.11 73 1013.1
20200328125712 78 130 0.0 2.0 0.00 0.11 0.11 73 1013.1
20200328125606 78 248 0.0 6.0 0.00 0.11 0.11 73 1013.1
20200328125500 78 248 0.0 6.0 0.00 0.11 0.11 73 1013.1
20200328125252 78 248 0.0 6.0 0.00 0.11 0.11 73 1013.1
20200328125144 78 248 0.0 6.0 0.00 0.11 0.11 73 1013.1
20200328125035 78 248 0.0 6.0 0.00 0.11 0.11 73 1013.2
20200328124930 78 248 1.0 6.0 0.00 0.11 0.11 73 1013.2
20200328124825 78 248 1.0 6.0 0.00 0.11 0.11 73 1013.1
20200328124721 78 248 1.0 10.0 0.00 0.11 0.11 73 1013.1
20200328124616 78 248 1.0 10.0 0.00 0.11 0.11 73 1013.1
20200328124510 78 248 1.0 10.0 0.00 0.11 0.11 73 1013.1
20200328124407 78 250 0.0 10.0 0.00 0.11 0.11 73 1013.1
20200328124300 78 241 0.0 10.0 0.00 0.11 0.11 73 1013.1
20200328124152 78 277 0.0 10.0 0.00 0.11 0.11 73 1013.1
20200328124050 78 277 0.0 10.0 0.00 0.11 0.11 73 1013.1
20200328123945 78 308 0.0 10.0 0.00 0.11 0.11 73 1013.1
20200328123839 78 276 0.0 10.0 0.00 0.11 0.11 73 1013.1
20200328123735 78 276 1.0 10.0 0.00 0.11 0.11 72 1013.1
20200328123630 78 256 1.0 10.0 0.00 0.11 0.11 72 1013.1
20200328123524 78 257 1.0 10.0 0.00 0.11 0.11 72 1013.1
20200328123417 78 256 1.0 10.0 0.00 0.11 0.11 72 1013.1
20200328123314 78 223 1.0 10.0 0.00 0.11 0.11 72 1013.1
20200328123206 78 223 1.0 10.0 0.00 0.11 0.11 72 1013.1
20200328123058 78 319 2.0 10.0 0.00 0.11 0.11 72 1013.1
20200328122952 78 22 1.0 10.0 0.00 0.11 0.11 73 1013.2
20200328122844 78 182 1.0 10.0 0.00 0.11 0.11 73 1013.2
20200328122741 78 206 1.0 8.0 0.00 0.11 0.11 73 1013.1
20200328122638 78 147 1.0 8.0 0.00 0.11 0.11 73 1013.2
20200328122531 78 234 1.0 8.0 0.00 0.11 0.11 73 1013.1
20200328122423 78 186 1.0 8.0 0.00 0.11 0.11 73 1013.2
20200328122320 78 230 1.0 8.0 0.00 0.12 0.11 73 1013.1
20200328122215 78 207 1.0 8.0 0.00 0.12 0.11 73 1013.2
20200328122110 78 213 1.0 8.0 0.00 0.12 0.11 73 1013.2
20200328122004 78 273 0.0 8.0 0.00 0.12 0.11 74 1013.2
20200328121859 78 215 0.0 8.0 0.00 0.12 0.11 74 1013.2
20200328121753 78 253 0.0 8.0 0.00 0.12 0.11 74 1013.2
20200328121646 78 253 0.0 8.0 0.00 0.12 0.11 74 1013.2
20200328121538 78 146 0.0 8.0 0.00 0.12 0.11 73 1013.2
20200328121435 78 197 0.0 8.0 0.00 0.12 0.11 74 1013.3
20200328121330 78 101 0.0 0.0 0.00 0.12 0.11 74 1013.3
20200328121224 78 101 0.0 0.0 0.00 0.12 0.11 74 1013.2
20200328121121 78 101 0.0 6.0 0.00 0.12 0.11 74 1013.2
20200328121017 78 101 0.0 6.0 0.00 0.12 0.11 74 1013.2
20200328120910 78 255 0.0 6.0 0.00 0.12 0.11 74 1013.3
20200328120803 78 286 0.0 6.0 0.00 0.12 0.11 74 1013.3
20200328120700 78 286 0.0 6.0 0.00 0.12 0.11 74 1013.3
20200328120555 78 233 0.0 6.0 0.00 0.12 0.11 74 1013.3
20200328120447 78 233 0.0 6.0 0.00 0.12 0.11 74 1013.2
20200328120340 78 233 1.0 6.0 0.00 0.12 0.11 74 1013.2
20200328120236 78 233 1.0 6.0 0.00 0.12 0.11 74 1013.2
20200328120132 78 252 1.0 6.0 0.00 0.12 0.11 74 1013.2
20200328120025 78 211 0.0 4.0 0.00 0.12 0.11 74 1013.2
20200328115919 78 250 0.0 4.0 0.00 0.12 0.11 74 1013.2
20200328115815 78 266 0.0 2.0 0.00 0.12 0.11 74 1013.2
20200328115710 78 220 0.0 6.0 0.00 0.12 0.11 74 1013.3
20200328115602 78 220 1.0 6.0 0.00 0.12 0.11 74 1013.3
20200328115456 78 290 1.0 6.0 0.00 0.12 0.11 73 1013.3
20200328115350 78 230 0.0 6.0 0.00 0.12 0.11 73 1013.3
20200328115242 78 269 0.0 6.0 0.00 0.12 0.11 73 1013.3
20200328115137 78 282 0.0 6.0 0.00 0.12 0.11 73 1013.3
20200328115031 78 182 1.0 6.0 0.00 0.12 0.11 73 1013.4
20200328114923 78 182 1.0 6.0 0.00 0.12 0.11 73 1013.3
20200328114820 78 213 1.0 6.0 0.00 0.12 0.11 73 1013.3
20200328114715 78 161 1.0 8.0 0.00 0.12 0.11 73 1013.3
20200328114609 78 251 1.0 8.0 0.00 0.12 0.11 73 1013.2
20200328114501 78 236 1.0 8.0 0.00 0.12 0.11 73 1013.1
20200328114353 78 256 1.0 8.0 0.00 0.12 0.11 73 1013.2
20200328114250 78 257 1.0 8.0 0.00 0.12 0.11 73 1013.1
20200328114145 78 241 1.0 8.0 0.00 0.12 0.11 73 1013.1
20200328114040 78 288 1.0 8.0 0.00 0.12 0.11 73 1013.1
20200328113935 78 254 1.0 8.0 0.00 0.12 0.11 73 1013.1
20200328113831 78 116 1.0 8.0 0.00 0.12 0.11 73 1013.1
20200328113725 78 231 1.0 8.0 0.00 0.12 0.11 73 1013.1
20200328113621 78 278 1.0 8.0 0.00 0.12 0.11 73 1013.1
20200328113518 78 245 1.0 8.0 0.00 0.12 0.11 73 1013.1
20200328113411 78 219 1.0 8.0 0.00 0.12 0.11 73 1013.1
20200328113303 78 313 1.0 8.0 0.00 0.12 0.11 73 1013.1
20200328113201 78 257 1.0 8.0 0.00 0.12 0.11 73 1013.1
20200328113058 78 258 1.0 8.0 0.00 0.12 0.11 73 1013.1
20200328112952 78 237 1.0 8.0 0.00 0.12 0.11 73 1013.1
20200328112847 78 248 1.0 8.0 0.00 0.12 0.11 73 1013.1
20200328112743 78 240 1.0 8.0 0.00 0.12 0.11 73 1013.1
20200328112639 78 315 1.0 5.0 0.00 0.12 0.11 73 1013.1
20200328112533 78 285 1.0 5.0 0.00 0.12 0.11 73 1013.1
20200328112426 78 217 1.0 5.0 0.00 0.12 0.11 73 1013.1
20200328112323 78 230 1.0 5.0 0.00 0.12 0.11 73 1013.1
20200328112221 78 230 1.0 5.0 0.00 0.12 0.11 73 1013.1
20200328112113 78 286 1.0 5.0 0.00 0.12 0.11 73 1013.1
20200328112007 78 303 0.0 5.0 0.00 0.12 0.11 73 1013.1
20200328111902 78 198 0.0 5.0 0.00 0.12 0.11 73 1013.1
20200328111756 78 278 0.0 3.0 0.00 0.12 0.11 73 1013.1
20200328111649 78 278 1.0 10.0 0.00 0.12 0.11 73 1013.1
20200328111541 78 291 1.0 10.0 0.00 0.12 0.11 73 1013.1
20200328111433 78 286 1.0 10.0 0.00 0.12 0.11 73 1013.1
20200328111328 78 142 1.0 10.0 0.00 0.12 0.11 73 1013.2
20200328111223 78 232 1.0 10.0 0.00 0.12 0.11 73 1013.1
20200328111116 78 280 1.0 10.0 0.00 0.12 0.11 73 1013.1
20200328111009 78 241 1.0 10.0 0.00 0.12 0.11 73 1013.1
20200328110905 78 351 1.0 10.0 0.00 0.12 0.11 73 1013.1
20200328110758 78 186 1.0 10.0 0.00 0.12 0.11 73 1013.1
20200328110651 78 172 1.0 10.0 0.00 0.12 0.11 73 1013.1
20200328110544 78 205 1.0 10.0 0.00 0.12 0.11 73 1013.1
20200328110440 78 241 1.0 10.0 0.00 0.12 0.11 73 1013.1
20200328110335 78 241 1.0 10.0 0.00 0.12 0.11 73 1013.1
20200328110227 78 281 1.0 10.0 0.00 0.12 0.11 73 1013.0
20200328110123 78 148 1.0 10.0 0.00 0.12 0.11 73 1013.1
20200328110020 78 219 2.0 10.0 0.00 0.12 0.11 73 1013.1
20200328105913 78 194 1.0 10.0 0.00 0.12 0.11 73 1013.1
20200328105807 78 256 1.0 10.0 0.00 0.12 0.11 73 1013.1
20200328105703 78 251 1.0 8.0 0.00 0.12 0.11 73 1013.0
20200328105600 78 172 1.0 8.0 0.00 0.12 0.11 73 1013.1
20200328105454 78 286 1.0 8.0 0.00 0.12 0.11 73 1013.1
20200328105351 78 122 1.0 8.0 0.00 0.12 0.11 73 1013.0
20200328105247 78 124 0.0 8.0 0.00 0.12 0.11 73 1013.0
20200328105144 78 255 0.0 8.0 0.00 0.12 0.11 73 1013.0
20200328105037 78 255 0.0 5.0 0.00 0.12 0.11 73 1013.0
20200328104929 78 273 0.0 3.0 0.00 0.12 0.11 73 1013.0
20200328104826 78 346 0.0 3.0 0.00 0.12 0.11 72 1013.0
20200328104721 78 204 0.0 3.0 0.00 0.12 0.11 72 1013.0
20200328104616 78 204 0.0 3.0 0.00 0.12 0.11 72 1013.0
20200328104511 78 279 0.0 2.0 0.00 0.12 0.11 72 1012.9
20200328104407 78 234 0.0 0.0 0.00 0.12 0.11 72 1013.0
20200328104259 78 234 0.0 2.0 0.00 0.12 0.11 72 1013.0
20200328104152 78 234 0.0 2.0 0.00 0.12 0.11 72 1013.0
20200328104049 78 291 0.0 1.0 0.00 0.12 0.11 72 1012.9
20200328103943 78 167 0.0 0.0 0.00 0.12 0.11 71 1012.9
20200328103834 78 167 0.0 0.0 0.00 0.12 0.11 71 1013.0
20200328103727 78 167 0.0 5.0 0.00 0.12 0.11 72 1013.0
20200328103623 78 154 0.0 5.0 0.00 0.12 0.11 71 1013.1
20200328103519 78 240 0.0 5.0 0.00 0.12 0.11 71 1013.0
20200328103413 78 277 0.0 5.0 0.00 0.12 0.11 71 1012.9
20200328103305 78 201 0.0 2.0 0.00 0.12 0.11 71 1012.9
20200328103202 78 165 0.0 0.0 0.00 0.12 0.11 71 1012.8
20200328103059 78 165 0.0 5.0 0.00 0.12 0.11 71 1012.8
20200328102954 78 164 0.0 5.0 0.00 0.12 0.11 71 1012.8
20200328102846 78 182 0.0 5.0 0.00 0.12 0.11 71 1012.7
20200328102740 78 182 0.0 5.0 0.00 0.12 0.11 70 1012.8
20200328102635 79 191 1.0 5.0 0.00 0.12 0.11 71 1012.8
20200328102532 79 233 1.0 5.0 0.00 0.12 0.11 70 1012.7
20200328102425 78 263 1.0 4.0 0.00 0.12 0.11 70 1012.7
20200328102322 79 305 1.0 4.0 0.00 0.12 0.11 70 1012.7
20200328102219 79 305 0.0 4.0 0.00 0.12 0.11 70 1012.7
20200328102116 79 305 0.0 4.0 0.00 0.12 0.11 70 1012.7
20200328102013 79 300 0.0 4.0 0.00 0.12 0.11 70 1012.6
20200328101908 79 253 0.0 4.0 0.00 0.12 0.11 70 1012.6
20200328101803 79 253 0.0 4.0 0.00 0.12 0.11 70 1012.6
20200328101700 79 295 0.0 3.0 0.00 0.12 0.11 70 1012.6
20200328101556 79 298 0.0 3.0 0.00 0.12 0.11 70 1012.6
20200328101452 79 279 0.0 2.0 0.00 0.12 0.11 70 1012.7
20200328101346 79 280 0.0 2.0 0.00 0.12 0.11 69 1012.6
20200328101239 79 250 0.0 2.0 0.00 0.12 0.11 69 1012.7
20200328101135 79 250 0.0 2.0 0.00 0.12 0.11 70 1012.7
20200328101033 79 202 0.0 1.0 0.00 0.12 0.11 69 1012.7
20200328100925 79 157 0.0 1.0 0.00 0.12 0.11 69 1012.8
20200328100821 79 151 0.0 1.0 0.00 0.12 0.11 69 1012.7
20200328100716 79 141 0.0 0.0 0.00 0.12 0.11 69 1012.7
20200328100614 79 141 0.0 0.0 0.00 0.12 0.11 70 1012.7
20200328100512 79 141 0.0 6.0 0.00 0.12 0.11 69 1012.7
20200328100407 79 141 0.0 6.0 0.00 0.12 0.11 69 1012.6
20200328100301 79 141 0.0 6.0 0.00 0.12 0.11 69 1012.7
20200328100154 79 192 0.0 6.0 0.00 0.12 0.11 69 1012.7
20200328100050 79 191 0.0 6.0 0.00 0.12 0.11 69 1012.6
20200328095947 79 166 0.0 2.0 0.00 0.12 0.11 69 1012.6
20200328095839 79 166 0.0 2.0 0.00 0.12 0.11 69 1012.6
20200328095732 79 166 0.0 2.0 0.00 0.12 0.11 69 1012.7
20200328095627 79 165 0.0 2.0 0.00 0.12 0.11 70 1012.7
20200328095524 79 55 0.0 2.0 0.00 0.12 0.11 70 1012.6
20200328095416 79 12 0.0 2.0 0.00 0.12 0.11 69 1012.7
20200328095310 79 86 0.0 0.0 0.00 0.12 0.11 69 1012.7
20200328095203 79 86 0.0 0.0 0.00 0.12 0.11 69 1012.6
20200328095100 79 86 0.0 0.0 0.00 0.12 0.11 69 1012.7
20200328094957 79 86 0.0 2.0 0.00 0.12 0.11 69 1012.7
20200328094849 79 86 0.0 2.0 0.00 0.12 0.11 69 1012.6
20200328094744 79 236 0.0 2.0 0.00 0.12 0.11 69 1012.6
20200328094637 79 236 0.0 2.0 0.00 0.12 0.11 70 1012.6
20200328094533 79 236 0.0 0.0 0.00 0.12 0.11 70 1012.6
20200328094428 79 233 0.0 0.0 0.00 0.12 0.11 70 1012.5
20200328094323 79 236 0.0 0.0 0.00 0.12 0.11 69 1012.5
20200328094220 79 236 0.0 4.0 0.00 0.12 0.11 69 1012.5
20200328094117 79 225 0.0 4.0 0.00 0.12 0.11 69 1012.5
20200328094014 79 224 0.0 4.0 0.00 0.12 0.11 69 1012.5
20200328093907 79 177 0.0 4.0 0.00 0.12 0.11 69 1012.5
20200328093758 79 188 0.0 0.0 0.00 0.12 0.11 69 1012.4
20200328093652 79 188 0.0 7.0 0.00 0.12 0.11 69 1012.4
20200328093548 79 188 0.0 7.0 0.00 0.12 0.11 69 1012.4
20200328093444 79 188 0.0 7.0 0.00 0.12 0.11 69 1012.4
20200328093338 79 177 0.0 7.0 0.00 0.12 0.11 69 1012.3
20200328093232 79 161 0.0 3.0 0.00 0.12 0.11 70 1012.4
20200328093129 79 172 0.0 3.0 0.00 0.12 0.11 70 1012.3
20200328093025 79 172 0.0 3.0 0.00 0.12 0.11 70 1012.3
20200328092920 79 177 0.0 2.0 0.00 0.12 0.11 70 1012.3
20200328092816 79 230 0.0 2.0 0.00 0.12 0.11 69 1012.3
20200328092714 79 230 0.0 2.0 0.00 0.12 0.11 70 1012.2
20200328092608 79 155 0.0 2.0 0.00 0.12 0.11 70 1012.2
20200328092502 79 177 0.0 1.0 0.00 0.12 0.11 70 1012.2
20200328092358 79 167 0.0 3.0 0.00 0.12 0.11 70 1012.2
20200328092254 79 167 0.0 3.0 0.00 0.12 0.11 69 1012.3
20200328092148 79 167 0.0 3.0 0.00 0.12 0.11 69 1012.2
20200328092039 79 167 0.0 3.0 0.00 0.12 0.11 69 1012.3
20200328091936 79 167 0.0 3.0 0.00 0.12 0.11 69 1012.3
20200328091831 79 168 0.0 3.0 0.00 0.12 0.11 70 1012.3
20200328091726 79 210 0.0 0.0 0.00 0.12 0.11 70 1012.2
20200328091622 79 210 0.0 3.0 0.00 0.12 0.11 70 1012.2
20200328091517 79 210 0.0 3.0 0.00 0.12 0.11 69 1012.1
20200328091413 79 207 0.0 2.0 0.00 0.12 0.11 69 1012.1
20200328091305 79 172 0.0 2.0 0.00 0.12 0.11 69 1012.2
20200328091157 79 172 0.0 2.0 0.00 0.12 0.11 69 1012.1
20200328091054 79 172 0.0 2.0 0.00 0.12 0.11 69 1012.1
20200328090951 79 172 0.0 2.0 0.00 0.12 0.11 69 1012.1
20200328090845 79 172 0.0 2.0 0.00 0.12 0.11 69 1012.1
20200328090740 79 139 0.0 0.0 0.00 0.12 0.11 69 1012.1
20200328090633 79 139 0.0 0.0 0.00 0.12 0.11 69 1012.1
20200328090529 79 139 0.0 0.0 0.00 0.12 0.11 69 1012.1
20200328090423 79 139 0.0 0.0 0.00 0.12 0.11 69 1012.1
20200328090315 79 139 0.0 3.0 0.00 0.12 0.11 69 1012.1
20200328090212 79 139 0.0 3.0 0.00 0.12 0.11 69 1012.1
20200328090107 79 172 0.0 0.0 0.00 0.12 0.11 69 1012.1
20200328085959 79 172 0.0 0.0 0.00 0.12 0.11 69 1012.1
20200328085853 79 172 0.0 0.0 0.00 0.12 0.11 69 1012.1
20200328085749 79 172 0.0 0.0 0.00 0.12 0.11 69 1012.0
20200328085645 79 172 0.0 4.0 0.00 0.12 0.11 69 1012.1
20200328085539 79 182 0.0 4.0 0.00 0.12 0.11 69 1012.0
20200328085435 79 342 0.0 4.0 0.00 0.12 0.11 70 1012.0
20200328085332 79 6 0.0 3.0 0.00 0.12 0.11 70 1012.1
20200328085225 79 107 0.0 3.0 0.00 0.12 0.11 70 1012.1
20200328085120 79 253 0.0 1.0 0.00 0.12 0.11 70 1012.1
20200328085015 79 253 0.0 1.0 0.00 0.12 0.11 70 1012.1
20200328084908 79 253 0.0 0.0 0.00 0.12 0.11 70 1012.1
20200328084802 79 253 0.0 0.0 0.00 0.12 0.11 70 1012.0
20200328084655 79 253 0.0 7.0 0.00 0.12 0.11 70 1012.0
20200328084551 79 253 0.0 7.0 0.00 0.12 0.11 70 1012.0
20200328084448 79 153 0.0 7.0 0.00 0.12 0.11 70 1012.0
20200328084342 79 251 0.0 7.0 0.00 0.12 0.11 70 1012.0
20200328084234 79 251 0.0 7.0 0.00 0.12 0.11 70 1012.0
20200328084129 79 235 0.0 7.0 0.00 0.12 0.11 70 1012.0
20200328084024 79 159 0.0 7.0 0.00 0.12 0.11 70 1012.0
20200328083921 79 163 0.0 7.0 0.00 0.12 0.11 69 1012.0
20200328083814 79 156 0.0 4.0 0.00 0.12 0.11 69 1012.0
20200328083710 79 156 0.0 4.0 0.00 0.12 0.11 69 1011.9
20200328083607 79 156 0.0 4.0 0.00 0.12 0.11 69 1011.9
20200328083459 79 148 0.0 0.0 0.00 0.12 0.11 70 1011.9
20200328083354 79 267 0.0 0.0 0.00 0.12 0.11 70 1011.9
20200328083252 79 267 0.0 0.0 0.00 0.12 0.11 69 1011.9
20200328083144 79 267 0.0 0.0 0.00 0.12 0.11 69 1011.9
20200328083038 79 267 0.0 0.0 0.00 0.12 0.11 69 1011.9
20200328082932 79 267 0.0 1.0 0.00 0.12 0.11 69 1011.8
20200328082828 79 267 0.0 1.0 0.00 0.12 0.11 69 1011.9
20200328082722 79 356 0.0 0.0 0.00 0.12 0.11 69 1011.9
20200328082619 79 356 0.0 1.0 0.00 0.12 0.11 69 1011.9
20200328082516 80 356 0.0 1.0 0.00 0.12 0.11 69 1011.8
20200328082413 80 356 0.0 0.0 0.00 0.12 0.11 69 1011.8
20200328082308 80 356 0.0 0.0 0.00 0.12 0.11 69 1011.9
20200328082203 80 356 0.0 0.0 0.00 0.12 0.11 69 1011.8
20200328082057 80 356 0.0 2.0 0.00 0.12 0.11 69 1011.8
20200328081952 80 356 0.0 2.0 0.00 0.12 0.11 69 1011.8
20200328081846 80 355 0.0 2.0 0.00 0.12 0.11 69 1011.8
20200328081739 80 355 0.0 0.0 0.00 0.12 0.11 69 1011.8
20200328081636 80 355 0.0 3.0 0.00 0.12 0.11 69 1011.8
20200328081534 80 355 0.0 3.0 0.00 0.12 0.11 69 1011.8
20200328081425 80 301 0.0 3.0 0.00 0.12 0.11 70 1011.8
20200328081322 80 301 0.0 3.0 0.00 0.12 0.11 69 1011.8
20200328081217 80 296 0.0 3.0 0.00 0.12 0.11 69 1011.7
20200328081112 80 265 0.0 3.0 0.00 0.12 0.11 68 1011.8
20200328081004 80 278 0.0 3.0 0.00 0.12 0.11 68 1011.8
20200328080856 80 177 0.0 3.0 0.00 0.12 0.11 68 1011.8
20200328080752 80 204 0.0 2.0 0.00 0.12 0.11 68 1011.9
20200328080646 80 204 0.0 0.0 0.00 0.12 0.11 68 1011.8
20200328080538 80 204 0.0 0.0 0.00 0.12 0.11 68 1011.9
20200328080432 80 204 0.0 0.0 0.00 0.12 0.11 68 1011.8
20200328080327 80 204 0.0 0.0 0.00 0.12 0.11 68 1011.8
20200328080222 80 204 0.0 0.0 0.00 0.12 0.11 68 1011.8
20200328080113 80 204 0.0 0.0 0.00 0.12 0.11 68 1011.8
20200328080006 80 204 0.0 0.0 0.00 0.12 0.11 68 1011.7
20200328075903 80 204 0.0 0.0 0.00 0.12 0.11 68 1011.8
20200328075800 80 204 0.0 0.0 0.00 0.12 0.11 68 1011.8
20200328075655 80 201 0.0 0.0 0.00 0.12 0.11 68 1011.8
20200328075549 80 201 0.0 0.0 0.00 0.12 0.11 68 1011.8
20200328075447 80 201 1.0 5.0 0.00 0.12 0.11 68 1011.8
20200328075342 80 201 1.0 5.0 0.00 0.12 0.11 68 1011.8
20200328075236 81 209 1.0 5.0 0.00 0.12 0.11 68 1011.8
20200328075128 81 190 1.0 5.0 0.00 0.12 0.11 68 1011.8
20200328075025 81 251 1.0 5.0 0.00 0.12 0.11 68 1011.7
20200328074921 81 240 1.0 5.0 0.00 0.12 0.11 68 1011.7
20200328074814 81 239 1.0 5.0 0.00 0.12 0.11 67 1011.7
20200328074708 81 172 1.0 5.0 0.00 0.12 0.11 67 1011.7
20200328074603 81 211 1.0 5.0 0.00 0.12 0.11 67 1011.7
20200328074458 81 172 1.0 5.0 0.00 0.12 0.11 67 1011.7
20200328074351 81 177 1.0 5.0 0.00 0.12 0.11 66 1011.7
20200328074247 81 190 1.0 5.0 0.00 0.12 0.11 66 1011.7
20200328074144 81 172 0.0 5.0 0.00 0.12 0.11 66 1011.7
20200328074037 81 209 0.0 5.0 0.00 0.12 0.11 66 1011.7
20200328073934 81 120 0.0 5.0 0.00 0.12 0.11 66 1011.6
20200328073831 81 119 0.0 5.0 0.00 0.12 0.11 66 1011.5
20200328073727 81 100 0.0 5.0 0.00 0.12 0.11 66 1011.5
20200328073621 81 96 0.0 5.0 0.00 0.12 0.11 65 1011.5
20200328073516 81 113 0.0 3.0 0.00 0.12 0.11 65 1011.5
20200328073409 81 125 0.0 3.0 0.00 0.12 0.11 65 1011.5
20200328073305 81 96 0.0 0.0 0.00 0.12 0.11 65 1011.5
20200328073158 81 95 0.0 5.0 0.00 0.12 0.11 65 1011.5
20200328073051 81 3 0.0 5.0 0.00 0.12 0.11 65 1011.4
20200328072948 81 5 0.0 5.0 0.00 0.12 0.11 64 1011.4
20200328072843 81 28 0.0 4.0 0.00 0.12 0.11 64 1011.4
20200328072735 81 84 0.0 1.0 0.00 0.12 0.11 64 1011.4
20200328072629 81 84 0.0 0.0 0.00 0.12 0.11 64 1011.4
20200328072524 81 84 1.0 5.0 0.00 0.12 0.11 64 1011.4
20200328072421 81 84 1.0 5.0 0.00 0.12 0.11 64 1011.4
20200328072314 81 162 1.0 5.0 0.00 0.12 0.11 64 1011.4
20200328072211 81 160 1.0 5.0 0.00 0.12 0.11 64 1011.4
20200328072108 81 80 1.0 5.0 0.00 0.12 0.11 64 1011.3
20200328072001 82 44 1.0 9.0 0.00 0.12 0.11 64 1011.3
20200328071901 82 256 1.0 9.0 0.00 0.12 0.11 63 1011.4
20200328071750 82 194 1.0 9.0 0.00 0.12 0.11 63 1011.3
20200328071642 82 167 1.0 9.0 0.00 0.12 0.11 63 1011.3
20200328071536 82 87 1.0 9.0 0.00 0.12 0.11 64 1011.4
20200328071429 82 11 1.0 9.0 0.00 0.12 0.11 64 1011.3
20200328071326 82 9 1.0 9.0 0.00 0.12 0.11 64 1011.3
20200328071222 82 116 1.0 9.0 0.00 0.12 0.11 64 1011.3
20200328071115 82 78 1.0 9.0 0.00 0.12 0.11 63 1011.3
20200328071009 82 148 1.0 9.0 0.00 0.12 0.11 63 1011.3
20200328070904 82 39 1.0 9.0 0.00 0.12 0.11 63 1011.3
20200328070800 82 124 1.0 9.0 0.00 0.12 0.11 63 1011.4
20200328070653 82 129 2.0 9.0 0.00 0.12 0.11 63 1011.3
20200328070547 82 127 2.0 9.0 0.00 0.12 0.11 63 1011.3
20200328070439 82 63 2.0 9.0 0.00 0.12 0.11 63 1011.3
20200328070336 82 103 2.0 9.0 0.00 0.12 0.11 63 1011.3
20200328070232 82 93 2.0 9.0 0.00 0.12 0.11 63 1011.4
20200328070127 82 98 2.0 9.0 0.00 0.12 0.11 63 1011.3
20200328070020 82 172 2.0 8.0 0.00 0.12 0.11 63 1011.3
20200328065916 82 105 2.0 8.0 0.00 0.12 0.11 63 1011.3
20200328065810 82 113 2.0 8.0 0.00 0.12 0.11 62 1011.3
20200328065703 82 358 1.0 7.0 0.00 0.12 0.11 62 1011.4
20200328065555 83 93 0.0 7.0 0.00 0.12 0.11 62 1011.3
20200328065452 83 161 0.0 7.0 0.00 0.12 0.11 62 1011.3
20200328065345 83 156 0.0 7.0 0.00 0.12 0.11 62 1011.3
20200328065239 83 217 0.0 7.0 0.00 0.12 0.11 62 1011.3
20200328065132 83 50 0.0 5.0 0.00 0.12 0.11 63 1011.3
20200328065028 83 30 0.0 3.0 0.00 0.12 0.11 63 1011.3
20200328064922 83 20 0.0 0.0 0.00 0.12 0.11 63 1011.3
20200328064817 83 20 1.0 0.0 0.00 0.12 0.11 63 1011.3
20200328064713 83 19 1.0 9.0 0.00 0.12 0.11 62 1011.3
20200328064608 83 31 1.0 9.0 0.00 0.12 0.11 62 1011.3
20200328064500 83 74 1.0 9.0 0.00 0.12 0.11 62 1011.3
20200328064354 83 105 1.0 9.0 0.00 0.12 0.11 62 1011.2
20200328064250 83 107 1.0 9.0 0.00 0.12 0.11 62 1011.2
20200328064141 83 15 2.0 9.0 0.00 0.12 0.11 62 1011.2
20200328064035 83 15 2.0 9.0 0.00 0.12 0.11 61 1011.2
20200328063927 83 55 2.0 11.0 0.00 0.12 0.11 61 1011.2
20200328063824 83 34 1.0 11.0 0.00 0.12 0.11 61 1011.2
20200328063719 84 54 1.0 11.0 0.00 0.12 0.11 61 1011.2
20200328063614 84 91 1.0 11.0 0.00 0.12 0.11 61 1011.2
20200328063508 84 318 2.0 11.0 0.00 0.12 0.11 61 1011.2
20200328063401 84 348 2.0 11.0 0.00 0.12 0.11 61 1011.2
20200328063257 84 15 2.0 11.0 0.00 0.12 0.11 61 1011.2
20200328063154 84 130 2.0 11.0 0.00 0.12 0.11 60 1011.1
20200328063047 84 71 2.0 11.0 0.00 0.12 0.11 61 1011.1
20200328062938 84 136 2.0 7.0 0.00 0.12 0.11 60 1011.1
20200328062836 84 165 2.0 7.0 0.00 0.12 0.11 59 1011.0
20200328062732 84 85 2.0 7.0 0.00 0.12 0.11 60 1011.1
20200328062627 84 105 2.0 7.0 0.00 0.12 0.11 60 1011.0
20200328062522 85 30 1.0 7.0 0.00 0.12 0.11 60 1011.0
20200328062418 85 351 1.0 7.0 0.00 0.12 0.11 59 1011.0
20200328062311 85 59 1.0 7.0 0.00 0.12 0.11 60 1011.1
20200328062204 84 109 1.0 7.0 0.00 0.12 0.11 60 1011.0
20200328062101 84 120 1.0 7.0 0.00 0.12 0.11 60 1011.0
20200328061957 84 318 1.0 5.0 0.00 0.12 0.11 61 1011.0
20200328061852 84 263 1.0 5.0 0.00 0.12 0.11 61 1010.9
20200328061750 84 261 1.0 5.0 0.00 0.12 0.11 61 1010.9
20200328061647 84 278 1.0 3.0 0.00 0.12 0.11 62 1011.0
20200328061542 84 262 1.0 11.0 0.00 0.12 0.11 61 1010.9
20200328061435 84 243 1.0 11.0 0.00 0.12 0.11 61 1010.9
20200328061333 84 244 1.0 6.0 0.00 0.12 0.11 61 1010.9
20200328061227 84 233 0.0 6.0 0.00 0.12 0.11 62 1010.9
20200328061120 84 282 0.0 0.0 0.00 0.12 0.11 62 1010.9
20200328061013 84 282 0.0 6.0 0.00 0.12 0.11 62 1010.9
20200328060910 84 281 0.0 6.0 0.00 0.12 0.11 62 1010.9
20200328060805 84 232 1.0 6.0 0.00 0.12 0.11 61 1010.9
20200328060701 84 232 1.0 6.0 0.00 0.12 0.11 60 1010.9
20200328060559 84 226 1.0 6.0 0.00 0.12 0.11 61 1010.8
20200328060455 84 267 1.0 4.0 0.00 0.12 0.11 62 1010.9
20200328060348 84 66 1.0 0.0 0.00 0.12 0.11 60 1010.9
20200328060242 84 61 1.0 0.0 0.00 0.12 0.11 60 1010.9
20200328060138 84 61 1.0 9.0 0.00 0.12 0.11 60 1010.9
20200328060033 84 65 1.0 9.0 0.00 0.12 0.11 60 1011.0